GEFSSGP_prec_meanprecacc_132.txt.gz
Total_Precipitation_Accumulation
0.00 0.03 0.14 0.28 0.43 0.79 0.90 0.52 0.32 0.27 0.26 0.32 0.45 0.45 0.37 0.35 0.43 0.64 0.23 0.04 0.02 0.01 0.01 0.04 0.05 0.04 0.05 0.06 0.08 0.09 0.09 0.10 0.11 0.09 0.07 0.07 0.05 0.04 0.04 0.04 0.05 0.06 0.06 0.07 0.08 0.08 0.08 0.09 0.09
0.00 0.03 0.12 0.25 0.59 1.20 0.96 0.44 0.27 0.25 0.31 0.35 0.40 0.47 0.49 0.33 0.22 0.17 0.10 0.05 0.03 0.01 0.02 0.03 0.06 0.06 0.05 0.06 0.07 0.08 0.08 0.09 0.10 0.08 0.07 0.07 0.06 0.06 0.07 0.06 0.06 0.08 0.09 0.09 0.08 0.07 0.06 0.07 0.09
0.01 0.02 0.09 0.22 0.53 0.85 0.60 0.25 0.19 0.23 0.38 0.43 0.44 0.44 0.45 0.28 0.20 0.12 0.09 0.07 0.05 0.03 0.04 0.07 0.09 0.07 0.06 0.05 0.07 0.08 0.08 0.08 0.09 0.08 0.08 0.08 0.07 0.08 0.08 0.08 0.08 0.09 0.10 0.09 0.07 0.06 0.06 0.07 0.09
0.01 0.03 0.09 0.19 0.27 0.31 0.26 0.15 0.13 0.19 0.30 0.39 0.50 0.51 0.38 0.25 0.23 0.19 0.11 0.08 0.05 0.05 0.06 0.07 0.10 0.08 0.06 0.05 0.06 0.08 0.08 0.08 0.09 0.09 0.09 0.10 0.09 0.09 0.09 0.09 0.08 0.09 0.10 0.10 0.07 0.05 0.06 0.08 0.09
0.01 0.03 0.10 0.16 0.15 0.19 0.21 0.16 0.15 0.16 0.27 0.40 0.44 0.52 0.47 0.33 0.25 0.18 0.12 0.10 0.06 0.06 0.06 0.07 0.09 0.09 0.08 0.07 0.08 0.08 0.08 0.09 0.09 0.09 0.08 0.09 0.10 0.11 0.10 0.10 0.09 0.10 0.11 0.12 0.08 0.06 0.06 0.07 0.08
0.00 0.03 0.06 0.08 0.07 0.09 0.13 0.12 0.15 0.18 0.28 0.46 0.44 0.52 0.61 0.47 0.34 0.26 0.16 0.14 0.10 0.08 0.06 0.08 0.12 0.13 0.11 0.10 0.11 0.10 0.09 0.10 0.10 0.09 0.08 0.09 0.09 0.10 0.11 0.12 0.11 0.12 0.12 0.12 0.09 0.06 0.07 0.08 0.10
0.00 0.01 0.03 0.03 0.03 0.04 0.07 0.10 0.15 0.17 0.32 0.54 0.46 0.62 0.84 0.81 0.49 0.39 0.36 0.24 0.18 0.16 0.18 0.13 0.12 0.14 0.15 0.16 0.15 0.14 0.12 0.12 0.11 0.11 0.10 0.09 0.10 0.11 0.14 0.18 0.18 0.17 0.16 0.15 0.12 0.08 0.08 0.09 0.11
0.00 0.01 0.01 0.01 0.01 0.02 0.04 0.06 0.10 0.24 0.31 0.41 0.39 0.63 1.05 0.99 0.61 0.56 0.61 0.51 0.45 0.42 0.31 0.21 0.18 0.19 0.16 0.14 0.16 0.18 0.16 0.14 0.13 0.13 0.12 0.12 0.13 0.16 0.20 0.22 0.26 0.28 0.27 0.24 0.20 0.16 0.13 0.13 0.15
0.00 0.01 0.00 0.00 0.00 0.01 0.02 0.05 0.08 0.18 0.33 0.52 0.59 0.64 0.88 0.78 0.73 0.78 0.85 0.85 0.77 0.81 0.61 0.33 0.26 0.24 0.22 0.19 0.19 0.23 0.23 0.21 0.20 0.21 0.21 0.24 0.29 0.36 0.47 0.47 0.53 0.51 0.48 0.45 0.41 0.37 0.33 0.29 0.22
0.00 0.00 0.00 0.00 0.00 0.01 0.01 0.04 0.11 0.21 0.48 0.76 0.80 0.80 1.01 0.95 0.76 0.78 0.82 0.89 0.90 0.96 0.78 0.51 0.44 0.33 0.28 0.25 0.33 0.41 0.42 0.45 0.38 0.47 0.51 0.58 0.72 0.68 0.58 0.75 0.96 0.97 0.97 0.89 0.86 0.84 0.67 0.47 0.44
0.00 0.00 0.00 0.00 0.00 0.00 0.01 0.04 0.13 0.29 0.60 1.00 1.27 1.39 1.26 1.12 1.02 0.93 0.86 0.96 1.06 1.11 0.95 0.72 0.67 0.58 0.45 0.49 0.48 0.55 0.65 0.78 0.64 0.63 0.74 0.97 0.98 0.77 0.73 0.87 1.09 1.29 1.29 1.18 1.39 1.45 1.05 0.95 1.16
0.00 0.00 0.00 0.00 0.00 0.00 0.03 0.06 0.14 0.31 0.60 0.85 1.08 1.45 1.59 1.40 1.39 1.31 1.21 1.35 1.43 1.40 1.26 1.00 0.84 0.73 0.67 0.65 0.64 0.69 0.71 0.86 0.84 0.95 1.00 1.16 1.31 1.21 1.17 1.25 1.28 1.40 1.50 1.71 1.79 1.85 1.63 1.55 1.51
0.00 0.00 0.00 0.01 0.01 0.01 0.04 0.13 0.22 0.35 0.47 0.68 0.85 1.03 1.30 1.58 1.81 1.82 1.84 2.10 1.88 1.77 1.67 1.45 1.22 1.15 1.05 1.06 1.07 0.99 1.01 1.12 1.18 1.30 1.30 1.31 1.50 1.47 1.51 1.51 1.56 1.48 1.59 1.79 1.98 1.94 1.98 2.02 1.89
0.00 0.00 0.01 0.01 0.01 0.02 0.06 0.19 0.23 0.35 0.42 0.54 0.80 1.02 1.52 2.02 2.09 2.25 2.51 2.61 2.44 2.28 2.32 2.12 1.89 1.88 1.76 1.59 1.43 1.40 1.36 1.44 1.46 1.51 1.49 1.57 1.75 1.84 1.76 1.59 1.62 1.57 1.63 1.73 1.91 2.01 2.28 2.23 2.13
0.00 0.02 0.03 0.03 0.03 0.04 0.08 0.23 0.29 0.37 0.48 0.66 0.98 1.19 1.58 1.88 2.02 2.09 2.45 2.65 2.62 2.56 2.72 2.73 2.67 2.65 2.49 2.26 1.95 1.77 1.77 1.71 1.76 1.81 1.78 1.89 1.95 2.02 1.94 1.75 1.61 1.66 1.73 1.81 1.84 1.97 2.25 2.18 2.06
0.02 0.05 0.08 0.07 0.07 0.08 0.14 0.45 0.37 0.46 0.72 1.01 1.24 1.33 1.54 1.60 1.83 1.96 2.25 2.59 2.69 2.76 2.91 3.14 3.27 3.21 2.97 2.69 2.41 2.17 2.07 1.98 1.92 1.91 1.91 1.89 1.99 2.01 1.97 1.75 1.57 1.76 1.77 1.83 1.95 2.02 2.16 2.24 2.26
0.04 0.06 0.12 0.16 0.14 0.10 0.24 0.63 0.63 0.73 0.90 1.04 1.16 1.33 1.44 1.44 1.73 2.07 2.30 2.77 2.96 3.09 3.43 3.79 3.88 3.81 3.47 3.00 2.69 2.53 2.36 2.15 1.99 1.95 1.87 1.88 1.95 1.88 1.94 1.69 1.56 1.77 1.92 1.92 1.77 2.04 2.25 2.23 2.25
0.04 0.05 0.09 0.15 0.15 0.16 0.31 0.52 0.62 0.78 0.94 1.07 1.06 1.13 1.17 1.31 1.73 2.16 2.41 2.68 3.18 3.62 4.07 4.12 4.06 4.26 4.02 3.61 3.29 2.93 2.57 2.25 2.08 1.95 1.78 1.66 1.61 1.68 1.89 1.61 1.59 1.84 1.91 1.86 1.93 2.10 2.25 2.13 2.17
0.04 0.08 0.16 0.17 0.15 0.28 0.46 0.62 0.71 0.82 0.88 0.98 1.11 1.08 1.10 1.34 1.71 2.06 2.37 2.67 3.05 3.59 3.91 4.25 4.27 4.14 3.98 3.72 3.28 2.83 2.38 2.12 1.93 1.75 1.59 1.56 1.60 1.73 2.01 1.75 1.76 1.80 1.74 1.74 1.92 2.06 1.98 1.84 2.24
0.07 0.12 0.20 0.24 0.18 0.26 0.46 0.69 0.81 0.80 0.83 0.90 1.05 1.25 1.27 1.46 1.69 2.06 2.44 2.67 2.76 2.98 3.29 3.55 3.58 3.20 2.85 2.69 2.58 2.42 2.29 1.99 1.80 1.70 1.70 1.62 1.66 1.70 1.80 1.82 1.74 1.73 1.71 1.56 1.64 1.88 1.77 1.47 1.90
0.10 0.10 0.11 0.16 0.19 0.30 0.49 0.84 0.94 0.78 0.75 0.83 0.97 1.25 1.44 1.44 1.61 1.89 2.28 2.41 2.44 2.50 2.57 2.59 2.49 2.30 2.18 2.18 2.23 2.28 2.28 2.05 1.99 1.98 1.95 1.75 1.71 1.72 1.80 1.70 1.55 1.51 1.50 1.38 1.39 1.59 1.66 1.45 1.48
0.13 0.08 0.05 0.08 0.21 0.46 0.58 1.00 1.07 0.86 0.81 0.85 0.93 1.04 1.13 1.19 1.24 1.36 1.61 1.93 1.85 1.87 2.02 2.22 2.14 2.00 2.04 2.21 2.23 2.26 2.28 2.30 2.39 2.51 2.42 2.23 2.01 1.88 1.77 1.58 1.41 1.25 1.21 1.17 1.13 1.29 1.42 1.43 1.21
0.07 0.05 0.06 0.09 0.19 0.38 0.47 0.74 0.96 0.99 0.87 0.78 0.80 0.88 0.90 0.93 0.95 0.96 1.12 1.51 1.61 1.50 1.63 1.86 2.05 2.16 2.26 2.39 2.45 2.54 2.54 2.52 2.45 2.44 2.32 2.15 2.00 1.84 1.64 1.50 1.37 1.26 1.15 1.08 1.05 1.10 1.13 1.16 1.07
0.05 0.07 0.15 0.22 0.39 0.74 0.59 0.61 0.96 0.97 0.80 0.68 0.57 0.60 0.64 0.66 0.67 0.71 0.86 1.29 1.61 1.61 1.62 1.70 1.87 2.12 2.27 2.31 2.31 2.31 2.25 2.17 2.03 1.89 1.74 1.58 1.48 1.41 1.33 1.21 1.12 1.07 1.07 1.07 1.04 1.00 1.01 1.02 1.04
0.06 0.16 0.51 0.81 1.07 1.12 0.58 0.58 0.85 0.73 0.67 0.59 0.63 0.64 0.48 0.43 0.50 0.50 0.51 0.63 0.78 0.93 1.01 1.09 1.21 1.42 1.57 1.66 1.67 1.60 1.61 1.52 1.39 1.27 1.14 1.00 0.89 0.83 0.79 0.80 0.81 0.81 0.82 0.82 0.84 0.82 0.82 0.91 0.98
0.07 0.10 0.32 0.50 0.64 0.77 0.67 0.94 0.89 0.59 0.47 0.47 0.52 0.46 0.30 0.26 0.28 0.27 0.25 0.27 0.44 0.63 0.81 0.90 0.93 0.95 0.99 1.04 1.05 0.99 0.97 0.96 0.90 0.90 0.81 0.71 0.65 0.60 0.60 0.62 0.63 0.63 0.65 0.67 0.71 0.69 0.69 0.71 0.77
0.06 0.06 0.09 0.15 0.25 0.50 0.72 1.03 0.92 0.52 0.45 0.44 0.33 0.22 0.16 0.12 0.11 0.11 0.11 0.13 0.23 0.42 0.60 0.66 0.73 0.77 0.82 0.87 0.80 0.71 0.63 0.62 0.64 0.65 0.62 0.59 0.62 0.56 0.57 0.59 0.62 0.64 0.67 0.68 0.67 0.65 0.66 0.74 0.79
0.07 0.07 0.08 0.12 0.24 0.42 0.66 0.93 0.98 0.60 0.52 0.44 0.30 0.22 0.13 0.07 0.05 0.04 0.05 0.07 0.11 0.19 0.34 0.49 0.59 0.68 0.75 0.81 0.72 0.61 0.55 0.51 0.52 0.56 0.57 0.58 0.58 0.58 0.58 0.57 0.62 0.65 0.64 0.62 0.61 0.59 0.62 0.72 0.81
0.10 0.09 0.09 0.09 0.13 0.28 0.50 0.62 0.55 0.46 0.36 0.31 0.25 0.15 0.08 0.05 0.03 0.03 0.07 0.13 0.20 0.31 0.44 0.54 0.62 0.64 0.67 0.68 0.65 0.61 0.54 0.54 0.56 0.55 0.54 0.55 0.56 0.56 0.57 0.60 0.60 0.60 0.60 0.60 0.62 0.62 0.67 0.73 0.78
0.10 0.10 0.11 0.13 0.12 0.15 0.26 0.39 0.28 0.23 0.19 0.17 0.14 0.12 0.07 0.05 0.05 0.08 0.14 0.22 0.27 0.36 0.47 0.57 0.67 0.70 0.74 0.77 0.83 0.89 0.89 0.86 0.80 0.64 0.55 0.56 0.60 0.62 0.63 0.64 0.63 0.59 0.60 0.69 0.75 0.74 0.78 0.83 0.84

GEFSSGP_prec_meanprecacc_138.txt.gz
Total_Precipitation_Accumulation
0.00 0.03 0.14 0.28 0.48 0.87 0.94 0.53 0.32 0.27 0.27 0.33 0.45 0.45 0.37 0.35 0.47 0.76 0.26 0.04 0.02 0.01 0.01 0.04 0.05 0.04 0.05 0.07 0.09 0.10 0.10 0.11 0.12 0.10 0.09 0.08 0.07 0.05 0.06 0.06 0.06 0.08 0.09 0.10 0.10 0.09 0.09 0.10 0.12
0.00 0.03 0.12 0.27 0.65 1.27 1.02 0.45 0.27 0.26 0.31 0.35 0.40 0.47 0.49 0.33 0.22 0.18 0.10 0.05 0.03 0.01 0.02 0.03 0.06 0.06 0.05 0.06 0.08 0.09 0.09 0.10 0.10 0.09 0.08 0.08 0.07 0.07 0.08 0.07 0.08 0.10 0.11 0.11 0.09 0.08 0.08 0.09 0.11
0.01 0.02 0.09 0.23 0.56 0.90 0.70 0.28 0.20 0.23 0.38 0.43 0.44 0.44 0.45 0.28 0.20 0.12 0.09 0.07 0.05 0.03 0.04 0.07 0.09 0.07 0.06 0.06 0.08 0.09 0.09 0.09 0.09 0.09 0.09 0.09 0.08 0.09 0.10 0.09 0.09 0.11 0.12 0.10 0.08 0.07 0.07 0.08 0.10
0.01 0.03 0.09 0.20 0.28 0.33 0.30 0.17 0.14 0.19 0.30 0.40 0.50 0.51 0.38 0.25 0.23 0.19 0.11 0.08 0.05 0.05 0.06 0.07 0.10 0.08 0.07 0.06 0.07 0.09 0.09 0.09 0.10 0.10 0.10 0.11 0.10 0.11 0.10 0.10 0.09 0.11 0.12 0.11 0.08 0.06 0.07 0.09 0.10
0.01 0.04 0.11 0.19 0.16 0.19 0.21 0.17 0.15 0.16 0.27 0.40 0.44 0.53 0.49 0.33 0.25 0.18 0.12 0.10 0.06 0.06 0.06 0.07 0.09 0.09 0.08 0.07 0.08 0.09 0.09 0.09 0.10 0.10 0.10 0.10 0.11 0.12 0.12 0.11 0.10 0.12 0.13 0.13 0.09 0.07 0.07 0.08 0.10
0.00 0.04 0.09 0.09 0.08 0.09 0.13 0.12 0.15 0.18 0.28 0.47 0.44 0.52 0.63 0.47 0.34 0.26 0.16 0.14 0.10 0.08 0.06 0.08 0.12 0.13 0.11 0.10 0.11 0.11 0.10 0.10 0.11 0.11 0.10 0.10 0.10 0.11 0.13 0.13 0.12 0.13 0.13 0.13 0.10 0.08 0.09 0.08 0.11
0.00 0.02 0.03 0.03 0.03 0.04 0.07 0.10 0.15 0.18 0.33 0.54 0.46 0.63 0.86 0.82 0.49 0.39 0.36 0.25 0.18 0.16 0.18 0.13 0.12 0.15 0.15 0.16 0.15 0.15 0.13 0.12 0.12 0.13 0.11 0.10 0.10 0.12 0.15 0.18 0.19 0.18 0.17 0.16 0.12 0.09 0.09 0.09 0.12
0.00 0.01 0.01 0.01 0.02 0.03 0.04 0.06 0.10 0.24 0.32 0.42 0.39 0.65 1.12 1.00 0.61 0.56 0.61 0.51 0.45 0.44 0.32 0.21 0.19 0.20 0.17 0.15 0.16 0.19 0.16 0.15 0.14 0.13 0.13 0.13 0.14 0.17 0.21 0.23 0.27 0.29 0.28 0.25 0.21 0.16 0.13 0.14 0.16
0.00 0.01 0.01 0.01 0.01 0.01 0.02 0.05 0.08 0.18 0.33 0.52 0.59 0.65 0.89 0.78 0.73 0.79 0.86 0.86 0.78 0.85 0.68 0.36 0.28 0.26 0.24 0.20 0.20 0.24 0.24 0.22 0.20 0.22 0.22 0.26 0.32 0.38 0.49 0.49 0.53 0.52 0.48 0.45 0.41 0.37 0.34 0.29 0.22
0.00 0.00 0.01 0.00 0.00 0.01 0.01 0.04 0.11 0.21 0.49 0.77 0.83 0.82 1.02 0.95 0.76 0.79 0.83 0.91 0.93 1.02 0.88 0.58 0.49 0.37 0.31 0.28 0.35 0.45 0.44 0.46 0.41 0.50 0.54 0.66 0.81 0.76 0.64 0.77 0.96 0.98 0.97 0.90 0.86 0.84 0.68 0.50 0.46
0.00 0.00 0.00 0.00 0.00 0.00 0.01 0.04 0.13 0.30 0.61 1.06 1.36 1.43 1.28 1.13 1.02 0.95 0.88 1.00 1.13 1.17 1.02 0.78 0.72 0.65 0.53 0.58 0.54 0.60 0.70 0.82 0.70 0.68 0.79 1.06 1.03 0.82 0.78 0.90 1.10 1.31 1.31 1.21 1.41 1.46 1.07 1.00 1.20
0.00 0.00 0.00 0.00 0.00 0.00 0.03 0.06 0.14 0.31 0.61 0.89 1.16 1.48 1.62 1.43 1.41 1.33 1.27 1.43 1.55 1.48 1.31 1.08 0.90 0.80 0.77 0.76 0.72 0.73 0.74 0.89 0.87 0.99 1.03 1.19 1.36 1.27 1.24 1.32 1.33 1.45 1.57 1.79 1.84 1.89 1.67 1.60 1.53
0.00 0.00 0.00 0.01 0.01 0.01 0.04 0.13 0.22 0.35 0.47 0.69 0.88 1.06 1.32 1.61 1.85 1.87 1.92 2.23 2.02 1.88 1.75 1.56 1.32 1.24 1.16 1.18 1.17 1.04 1.04 1.14 1.22 1.35 1.34 1.34 1.53 1.52 1.57 1.58 1.62 1.53 1.64 1.85 2.03 1.98 2.05 2.11 1.92
0.00 0.00 0.01 0.01 0.01 0.02 0.06 0.19 0.23 0.36 0.44 0.55 0.81 1.03 1.54 2.05 2.13 2.31 2.60 2.75 2.59 2.43 2.43 2.23 2.01 1.98 1.85 1.67 1.52 1.47 1.39 1.47 1.50 1.55 1.52 1.59 1.78 1.88 1.81 1.65 1.67 1.61 1.66 1.78 1.97 2.05 2.32 2.27 2.18
0.00 0.02 0.03 0.03 0.03 0.04 0.08 0.24 0.30 0.39 0.49 0.67 0.98 1.20 1.59 1.91 2.07 2.15 2.52 2.74 2.72 2.66 2.82 2.84 2.78 2.77 2.60 2.36 2.05 1.83 1.81 1.74 1.81 1.86 1.82 1.91 1.98 2.07 1.99 1.81 1.67 1.72 1.77 1.86 1.90 2.02 2.29 2.23 2.10
0.02 0.05 0.08 0.07 0.07 0.08 0.14 0.47 0.42 0.51 0.73 1.01 1.24 1.34 1.56 1.63 1.87 2.00 2.30 2.67 2.79 2.86 3.02 3.27 3.38 3.33 3.09 2.83 2.55 2.28 2.14 2.05 1.98 1.94 1.94 1.92 2.02 2.06 2.02 1.81 1.63 1.81 1.81 1.86 1.99 2.07 2.20 2.28 2.31
0.04 0.06 0.12 0.16 0.14 0.10 0.24 0.64 0.65 0.75 0.91 1.05 1.16 1.33 1.46 1.46 1.76 2.10 2.34 2.81 3.01 3.15 3.53 3.94 4.05 3.95 3.59 3.15 2.85 2.71 2.54 2.31 2.08 2.01 1.91 1.93 1.98 1.92 1.99 1.75 1.64 1.83 1.97 1.94 1.79 2.08 2.30 2.28 2.30
0.04 0.05 0.09 0.15 0.16 0.16 0.31 0.52 0.65 0.81 0.96 1.08 1.06 1.13 1.18 1.33 1.75 2.19 2.45 2.71 3.21 3.67 4.16 4.25 4.23 4.41 4.16 3.79 3.48 3.12 2.79 2.49 2.22 2.05 1.86 1.72 1.65 1.72 1.94 1.67 1.66 1.89 1.96 1.91 1.98 2.16 2.30 2.18 2.22
0.05 0.09 0.16 0.17 0.15 0.28 0.46 0.62 0.71 0.83 0.88 0.98 1.11 1.09 1.11 1.35 1.73 2.10 2.41 2.71 3.09 3.64 3.98 4.35 4.42 4.30 4.12 3.87 3.44 2.98 2.56 2.34 2.08 1.84 1.66 1.63 1.65 1.79 2.06 1.82 1.85 1.87 1.80 1.79 1.97 2.10 2.02 1.88 2.28
0.07 0.13 0.21 0.25 0.18 0.27 0.46 0.69 0.81 0.81 0.83 0.90 1.06 1.25 1.28 1.47 1.72 2.09 2.47 2.71 2.81 3.03 3.35 3.64 3.72 3.35 2.98 2.82 2.72 2.56 2.46 2.13 1.93 1.83 1.83 1.70 1.72 1.77 1.84 1.90 1.81 1.80 1.78 1.62 1.71 1.93 1.82 1.52 1.93
0.10 0.10 0.12 0.17 0.19 0.30 0.50 0.85 0.95 0.79 0.76 0.84 0.97 1.25 1.46 1.47 1.64 1.92 2.31 2.46 2.49 2.56 2.64 2.68 2.63 2.45 2.32 2.34 2.38 2.43 2.48 2.23 2.16 2.14 2.10 1.86 1.80 1.79 1.87 1.77 1.61 1.57 1.54 1.45 1.45 1.62 1.70 1.50 1.52
0.13 0.08 0.05 0.08 0.21 0.46 0.58 1.01 1.08 0.87 0.84 0.88 0.93 1.04 1.14 1.23 1.27 1.38 1.64 1.97 1.90 1.93 2.11 2.34 2.29 2.17 2.22 2.41 2.42 2.39 2.40 2.43 2.51 2.63 2.55 2.36 2.14 1.97 1.85 1.65 1.47 1.30 1.25 1.24 1.17 1.34 1.45 1.48 1.26
0.07 0.05 0.06 0.09 0.19 0.38 0.47 0.75 0.98 1.01 0.90 0.81 0.80 0.89 0.90 0.95 0.97 0.98 1.15 1.55 1.65 1.55 1.72 1.98 2.23 2.33 2.43 2.58 2.64 2.71 2.68 2.66 2.59 2.60 2.49 2.29 2.14 1.96 1.74 1.58 1.44 1.31 1.20 1.14 1.11 1.17 1.18 1.20 1.11
0.05 0.07 0.15 0.22 0.39 0.75 0.60 0.62 0.98 1.00 0.82 0.70 0.59 0.60 0.64 0.67 0.68 0.72 0.88 1.31 1.65 1.66 1.71 1.81 2.04 2.26 2.40 2.46 2.48 2.49 2.41 2.35 2.22 2.08 1.89 1.70 1.59 1.52 1.43 1.32 1.21 1.14 1.13 1.14 1.10 1.06 1.06 1.07 1.08
0.06 0.16 0.52 0.83 1.10 1.14 0.60 0.60 0.87 0.74 0.68 0.60 0.63 0.64 0.49 0.43 0.50 0.51 0.53 0.65 0.82 0.99 1.12 1.21 1.33 1.55 1.71 1.81 1.83 1.76 1.79 1.72 1.57 1.41 1.29 1.11 0.97 0.90 0.86 0.88 0.91 0.89 0.88 0.88 0.90 0.87 0.88 0.95 1.02
0.07 0.10 0.32 0.52 0.67 0.80 0.71 0.97 0.91 0.59 0.47 0.47 0.52 0.46 0.31 0.27 0.28 0.27 0.26 0.29 0.48 0.67 0.88 0.99 1.04 1.08 1.15 1.20 1.21 1.16 1.17 1.14 1.06 1.06 0.95 0.83 0.73 0.66 0.66 0.69 0.71 0.69 0.70 0.72 0.78 0.74 0.73 0.75 0.80
0.06 0.06 0.09 0.16 0.25 0.51 0.77 1.07 0.95 0.53 0.46 0.45 0.33 0.22 0.16 0.13 0.11 0.11 0.12 0.14 0.26 0.45 0.64 0.73 0.82 0.91 0.99 1.05 0.96 0.86 0.77 0.77 0.78 0.79 0.76 0.69 0.71 0.63 0.65 0.67 0.69 0.70 0.72 0.74 0.73 0.70 0.71 0.79 0.81
0.07 0.07 0.08 0.12 0.25 0.44 0.68 0.98 1.03 0.63 0.55 0.45 0.30 0.22 0.13 0.08 0.05 0.05 0.06 0.09 0.13 0.22 0.39 0.55 0.67 0.80 0.87 0.95 0.86 0.73 0.68 0.63 0.64 0.66 0.69 0.68 0.65 0.66 0.66 0.65 0.69 0.71 0.70 0.68 0.67 0.65 0.68 0.77 0.85
0.10 0.09 0.09 0.10 0.13 0.29 0.55 0.70 0.62 0.50 0.40 0.33 0.26 0.16 0.08 0.05 0.03 0.04 0.09 0.15 0.22 0.33 0.47 0.58 0.68 0.72 0.77 0.79 0.76 0.73 0.67 0.66 0.66 0.64 0.64 0.64 0.65 0.67 0.67 0.66 0.66 0.66 0.66 0.67 0.69 0.68 0.74 0.78 0.81
0.10 0.10 0.11 0.15 0.13 0.15 0.29 0.46 0.32 0.25 0.24 0.22 0.17 0.14 0.07 0.06 0.05 0.08 0.14 0.22 0.28 0.38 0.49 0.61 0.71 0.75 0.81 0.86 0.93 0.99 1.01 0.98 0.90 0.73 0.65 0.66 0.70 0.72 0.73 0.72 0.70 0.66 0.69 0.79 0.83 0.81 0.85 0.88 0.88

GEFSSGP_prec_meanprecacc_144.txt.gz
Total_Precipitation_Accumulation
0.00 0.03 0.18 0.34 0.55 0.96 1.00 0.57 0.36 0.30 0.30 0.35 0.46 0.46 0.37 0.36 0.49 0.81 0.29 0.06 0.03 0.01 0.01 0.05 0.05 0.04 0.05 0.07 0.09 0.10 0.10 0.12 0.12 0.11 0.09 0.08 0.07 0.06 0.06 0.06 0.07 0.09 0.10 0.11 0.11 0.10 0.11 0.12 0.13
0.00 0.03 0.15 0.34 0.78 1.34 1.06 0.50 0.32 0.32 0.34 0.36 0.41 0.48 0.51 0.35 0.23 0.19 0.12 0.06 0.04 0.02 0.02 0.03 0.06 0.06 0.05 0.06 0.08 0.09 0.10 0.10 0.11 0.09 0.09 0.09 0.08 0.08 0.09 0.08 0.09 0.11 0.13 0.12 0.10 0.09 0.09 0.10 0.13
0.01 0.04 0.12 0.30 0.66 0.95 0.74 0.33 0.28 0.27 0.39 0.44 0.45 0.45 0.49 0.31 0.20 0.12 0.11 0.08 0.05 0.03 0.04 0.07 0.09 0.07 0.06 0.06 0.08 0.09 0.09 0.10 0.10 0.10 0.10 0.10 0.09 0.10 0.11 0.10 0.11 0.12 0.13 0.11 0.10 0.09 0.09 0.10 0.12
0.01 0.05 0.13 0.27 0.35 0.37 0.33 0.23 0.21 0.21 0.31 0.40 0.51 0.52 0.41 0.27 0.24 0.20 0.13 0.11 0.06 0.05 0.06 0.07 0.10 0.08 0.07 0.06 0.07 0.09 0.10 0.09 0.11 0.11 0.11 0.12 0.11 0.11 0.11 0.11 0.11 0.13 0.13 0.12 0.10 0.08 0.08 0.11 0.12
0.01 0.06 0.18 0.26 0.20 0.24 0.24 0.22 0.20 0.18 0.28 0.41 0.46 0.54 0.51 0.35 0.26 0.19 0.13 0.15 0.10 0.07 0.06 0.07 0.09 0.09 0.08 0.07 0.08 0.09 0.09 0.10 0.10 0.11 0.10 0.11 0.12 0.13 0.13 0.12 0.11 0.13 0.14 0.14 0.10 0.08 0.08 0.09 0.11
0.01 0.06 0.14 0.17 0.12 0.12 0.16 0.15 0.17 0.20 0.31 0.51 0.46 0.54 0.67 0.51 0.36 0.27 0.17 0.17 0.15 0.11 0.07 0.08 0.12 0.13 0.11 0.11 0.12 0.11 0.10 0.11 0.11 0.11 0.10 0.10 0.11 0.13 0.14 0.14 0.13 0.14 0.14 0.13 0.10 0.08 0.09 0.10 0.13
0.01 0.03 0.07 0.11 0.08 0.07 0.09 0.12 0.16 0.20 0.36 0.63 0.52 0.66 0.92 0.85 0.51 0.40 0.38 0.29 0.25 0.21 0.19 0.13 0.13 0.15 0.16 0.16 0.16 0.15 0.13 0.13 0.13 0.13 0.12 0.11 0.11 0.13 0.15 0.19 0.20 0.19 0.18 0.17 0.13 0.10 0.09 0.10 0.14
0.00 0.01 0.03 0.05 0.04 0.05 0.05 0.08 0.12 0.26 0.34 0.51 0.45 0.69 1.16 1.03 0.64 0.58 0.64 0.57 0.61 0.54 0.39 0.23 0.19 0.20 0.17 0.15 0.17 0.19 0.17 0.15 0.15 0.14 0.14 0.14 0.15 0.18 0.21 0.23 0.27 0.29 0.28 0.25 0.21 0.16 0.14 0.15 0.18
0.00 0.01 0.03 0.03 0.02 0.03 0.04 0.06 0.09 0.18 0.34 0.56 0.62 0.68 0.91 0.80 0.76 0.81 0.89 0.94 0.93 0.96 0.79 0.40 0.29 0.26 0.24 0.20 0.20 0.24 0.24 0.23 0.21 0.23 0.24 0.27 0.32 0.39 0.50 0.49 0.53 0.52 0.49 0.46 0.42 0.38 0.35 0.31 0.25
0.00 0.01 0.02 0.01 0.01 0.02 0.02 0.05 0.12 0.22 0.50 0.80 0.86 0.87 1.04 0.98 0.79 0.81 0.86 1.00 1.06 1.12 1.01 0.66 0.52 0.38 0.31 0.28 0.36 0.46 0.45 0.46 0.41 0.50 0.54 0.66 0.82 0.77 0.64 0.77 0.96 0.98 0.98 0.91 0.88 0.86 0.70 0.52 0.48
0.00 0.00 0.00 0.00 0.01 0.01 0.02 0.05 0.13 0.31 0.64 1.09 1.39 1.45 1.31 1.17 1.05 0.98 0.93 1.11 1.30 1.29 1.13 0.86 0.76 0.67 0.53 0.59 0.54 0.61 0.70 0.82 0.70 0.68 0.79 1.07 1.04 0.83 0.79 0.90 1.11 1.32 1.32 1.22 1.42 1.48 1.10 1.03 1.24
0.00 0.00 0.00 0.00 0.00 0.01 0.03 0.07 0.15 0.33 0.62 0.91 1.18 1.50 1.64 1.47 1.45 1.38 1.32 1.55 1.74 1.60 1.41 1.18 0.97 0.84 0.79 0.77 0.72 0.73 0.74 0.90 0.88 1.00 1.04 1.20 1.37 1.28 1.24 1.32 1.34 1.46 1.58 1.81 1.86 1.91 1.71 1.65 1.59
0.00 0.00 0.00 0.01 0.01 0.01 0.04 0.13 0.23 0.36 0.49 0.71 0.90 1.07 1.35 1.67 1.94 1.95 1.98 2.37 2.25 2.06 1.92 1.73 1.40 1.29 1.19 1.19 1.17 1.04 1.05 1.14 1.23 1.35 1.35 1.35 1.54 1.53 1.59 1.59 1.63 1.54 1.65 1.86 2.06 2.01 2.09 2.16 1.98
0.00 0.00 0.01 0.01 0.01 0.02 0.06 0.19 0.24 0.37 0.47 0.63 0.87 1.07 1.60 2.15 2.28 2.45 2.72 2.93 2.84 2.62 2.62 2.46 2.14 2.05 1.90 1.69 1.54 1.49 1.41 1.49 1.51 1.56 1.53 1.60 1.78 1.90 1.83 1.67 1.69 1.63 1.68 1.79 1.99 2.07 2.37 2.32 2.23
0.00 0.02 0.03 0.03 0.03 0.04 0.08 0.24 0.30 0.40 0.51 0.73 1.09 1.28 1.71 2.03 2.25 2.30 2.65 2.86 2.84 2.79 2.95 3.00 2.90 2.86 2.68 2.41 2.08 1.88 1.86 1.77 1.85 1.90 1.85 1.93 1.99 2.08 2.00 1.82 1.68 1.74 1.80 1.88 1.92 2.05 2.33 2.27 2.16
0.02 0.05 0.08 0.07 0.07 0.08 0.15 0.47 0.42 0.52 0.74 1.03 1.29 1.43 1.65 1.78 2.10 2.16 2.40 2.75 2.89 2.97 3.14 3.38 3.46 3.43 3.20 2.91 2.61 2.36 2.22 2.13 2.09 2.05 2.00 1.96 2.06 2.08 2.04 1.83 1.65 1.84 1.84 1.89 2.02 2.11 2.24 2.33 2.36
0.04 0.06 0.13 0.17 0.15 0.11 0.25 0.65 0.66 0.76 0.93 1.07 1.18 1.42 1.57 1.54 1.84 2.17 2.40 2.89 3.11 3.25 3.63 4.03 4.15 4.06 3.70 3.25 2.95 2.83 2.67 2.43 2.24 2.18 2.02 1.98 2.03 1.95 2.01 1.78 1.67 1.85 1.99 1.97 1.82 2.13 2.34 2.31 2.33
0.04 0.06 0.10 0.15 0.16 0.16 0.33 0.53 0.66 0.83 0.97 1.09 1.09 1.20 1.25 1.36 1.79 2.24 2.51 2.77 3.28 3.74 4.25 4.34 4.32 4.55 4.30 3.92 3.60 3.27 2.93 2.67 2.42 2.25 2.02 1.81 1.71 1.77 1.97 1.70 1.70 1.93 2.00 1.93 2.00 2.19 2.33 2.20 2.25
0.05 0.09 0.16 0.18 0.16 0.29 0.48 0.63 0.73 0.85 0.90 1.01 1.14 1.12 1.14 1.39 1.76 2.14 2.45 2.77 3.14 3.70 4.08 4.43 4.50 4.41 4.25 3.98 3.53 3.09 2.68 2.51 2.28 2.06 1.86 1.76 1.74 1.85 2.11 1.86 1.89 1.91 1.85 1.82 1.99 2.13 2.04 1.91 2.31
0.07 0.13 0.21 0.25 0.19 0.28 0.48 0.71 0.85 0.87 0.85 0.93 1.10 1.29 1.32 1.52 1.75 2.12 2.50 2.75 2.86 3.10 3.44 3.72 3.82 3.46 3.08 2.91 2.81 2.65 2.56 2.25 2.07 2.05 2.03 1.87 1.83 1.84 1.89 1.93 1.84 1.84 1.81 1.65 1.73 1.95 1.84 1.54 1.95
0.10 0.11 0.12 0.17 0.19 0.31 0.51 0.86 0.97 0.81 0.78 0.86 0.99 1.28 1.48 1.49 1.66 1.94 2.34 2.49 2.54 2.62 2.70 2.75 2.73 2.56 2.44 2.47 2.53 2.58 2.62 2.38 2.29 2.29 2.25 2.01 1.92 1.87 1.92 1.80 1.64 1.61 1.57 1.47 1.46 1.64 1.71 1.51 1.54
0.13 0.08 0.05 0.08 0.21 0.47 0.59 1.02 1.10 0.89 0.86 0.91 0.96 1.06 1.16 1.25 1.30 1.41 1.67 2.00 1.94 1.99 2.17 2.44 2.44 2.35 2.39 2.58 2.57 2.52 2.51 2.52 2.58 2.70 2.64 2.47 2.23 2.05 1.91 1.70 1.50 1.35 1.29 1.27 1.19 1.35 1.46 1.49 1.27
0.07 0.05 0.06 0.09 0.19 0.39 0.49 0.76 1.01 1.03 0.95 0.86 0.85 0.91 0.93 0.98 1.01 1.02 1.17 1.58 1.69 1.62 1.79 2.08 2.38 2.51 2.60 2.74 2.76 2.83 2.78 2.75 2.69 2.69 2.58 2.38 2.23 2.05 1.81 1.64 1.49 1.36 1.25 1.18 1.14 1.20 1.19 1.21 1.11
0.05 0.07 0.15 0.22 0.39 0.75 0.61 0.64 1.03 1.03 0.86 0.75 0.64 0.66 0.69 0.69 0.72 0.78 0.92 1.36 1.70 1.73 1.77 1.88 2.16 2.44 2.60 2.66 2.66 2.64 2.56 2.49 2.36 2.22 1.99 1.80 1.69 1.60 1.50 1.39 1.26 1.19 1.18 1.18 1.13 1.09 1.08 1.08 1.09
0.06 0.16 0.52 0.83 1.10 1.15 0.61 0.63 0.93 0.78 0.72 0.64 0.67 0.68 0.51 0.45 0.53 0.56 0.57 0.69 0.86 1.04 1.18 1.28 1.46 1.72 1.88 2.01 2.01 1.94 1.99 1.91 1.74 1.56 1.42 1.22 1.07 0.98 0.94 0.96 0.98 0.96 0.93 0.93 0.94 0.90 0.90 0.97 1.03
0.07 0.10 0.32 0.53 0.68 0.82 0.75 1.03 1.00 0.67 0.54 0.54 0.56 0.48 0.33 0.29 0.30 0.31 0.29 0.30 0.50 0.72 0.93 1.05 1.12 1.19 1.28 1.34 1.34 1.31 1.36 1.34 1.23 1.22 1.08 0.95 0.84 0.75 0.75 0.77 0.78 0.76 0.77 0.78 0.82 0.78 0.76 0.76 0.81
0.06 0.06 0.09 0.16 0.26 0.53 0.82 1.16 1.06 0.67 0.57 0.52 0.39 0.26 0.19 0.15 0.13 0.14 0.15 0.16 0.27 0.49 0.70 0.78 0.89 0.97 1.07 1.15 1.07 0.99 0.92 0.93 0.91 0.92 0.89 0.82 0.83 0.75 0.78 0.78 0.77 0.77 0.77 0.79 0.77 0.74 0.73 0.82 0.85
0.07 0.07 0.08 0.12 0.26 0.46 0.73 1.07 1.15 0.80 0.72 0.55 0.39 0.29 0.17 0.11 0.08 0.08 0.10 0.11 0.14 0.24 0.42 0.58 0.72 0.85 0.94 1.02 0.94 0.81 0.79 0.76 0.76 0.78 0.80 0.79 0.78 0.80 0.81 0.78 0.79 0.79 0.77 0.73 0.70 0.68 0.70 0.80 0.88
0.10 0.09 0.09 0.10 0.13 0.30 0.58 0.77 0.73 0.61 0.49 0.41 0.38 0.29 0.17 0.14 0.10 0.08 0.13 0.18 0.25 0.34 0.48 0.60 0.70 0.75 0.84 0.86 0.82 0.78 0.74 0.75 0.78 0.76 0.75 0.74 0.76 0.80 0.80 0.78 0.76 0.73 0.72 0.73 0.74 0.72 0.78 0.83 0.87
0.11 0.10 0.12 0.15 0.13 0.16 0.30 0.51 0.38 0.31 0.31 0.31 0.27 0.26 0.17 0.17 0.16 0.17 0.20 0.26 0.33 0.41 0.51 0.62 0.72 0.76 0.85 0.92 1.00 1.05 1.07 1.05 1.00 0.86 0.78 0.78 0.81 0.84 0.86 0.86 0.82 0.75 0.76 0.86 0.90 0.88 0.92 0.96 0.95

GEFSSGP_prec_meanprecacc_150.txt.gz
Total_Precipitation_Accumulation
0.01 0.04 0.18 0.35 0.55 0.98 1.01 0.57 0.37 0.34 0.35 0.36 0.47 0.47 0.38 0.37 0.50 0.82 0.29 0.06 0.03 0.01 0.01 0.05 0.06 0.05 0.06 0.07 0.09 0.11 0.11 0.12 0.12 0.11 0.09 0.08 0.07 0.06 0.06 0.07 0.08 0.12 0.13 0.13 0.14 0.12 0.13 0.15 0.16
0.00 0.04 0.16 0.35 0.79 1.35 1.07 0.51 0.34 0.37 0.38 0.38 0.42 0.50 0.52 0.36 0.23 0.19 0.12 0.06 0.04 0.02 0.02 0.04 0.07 0.06 0.06 0.07 0.08 0.10 0.10 0.11 0.11 0.10 0.09 0.09 0.08 0.09 0.10 0.09 0.11 0.14 0.15 0.14 0.12 0.11 0.11 0.13 0.16
0.01 0.04 0.12 0.31 0.67 0.96 0.75 0.34 0.29 0.29 0.40 0.46 0.47 0.47 0.50 0.32 0.20 0.12 0.11 0.08 0.05 0.03 0.04 0.08 0.09 0.07 0.06 0.06 0.08 0.09 0.10 0.10 0.10 0.10 0.10 0.10 0.10 0.11 0.12 0.12 0.13 0.14 0.15 0.14 0.12 0.10 0.11 0.12 0.15
0.01 0.05 0.13 0.28 0.35 0.37 0.34 0.24 0.23 0.23 0.33 0.42 0.54 0.53 0.42 0.27 0.24 0.20 0.13 0.11 0.06 0.05 0.06 0.08 0.10 0.08 0.07 0.06 0.08 0.09 0.10 0.10 0.11 0.11 0.12 0.12 0.12 0.13 0.12 0.12 0.12 0.14 0.15 0.16 0.13 0.09 0.10 0.13 0.15
0.01 0.06 0.18 0.26 0.21 0.25 0.25 0.23 0.22 0.20 0.30 0.43 0.48 0.56 0.52 0.35 0.26 0.19 0.13 0.15 0.10 0.07 0.06 0.07 0.10 0.09 0.08 0.07 0.09 0.09 0.09 0.10 0.10 0.11 0.11 0.12 0.13 0.14 0.14 0.13 0.13 0.15 0.15 0.16 0.12 0.10 0.10 0.12 0.15
0.01 0.06 0.15 0.17 0.13 0.13 0.17 0.16 0.19 0.22 0.32 0.52 0.48 0.55 0.68 0.51 0.36 0.27 0.17 0.17 0.15 0.11 0.07 0.08 0.13 0.14 0.11 0.11 0.12 0.11 0.10 0.11 0.12 0.12 0.10 0.11 0.11 0.13 0.15 0.15 0.15 0.17 0.16 0.16 0.14 0.12 0.13 0.12 0.17
0.01 0.03 0.08 0.12 0.08 0.08 0.10 0.13 0.18 0.21 0.37 0.63 0.52 0.67 0.93 0.86 0.51 0.40 0.38 0.29 0.25 0.23 0.20 0.14 0.14 0.16 0.17 0.17 0.16 0.15 0.13 0.13 0.13 0.14 0.12 0.11 0.12 0.13 0.16 0.20 0.22 0.22 0.20 0.19 0.15 0.12 0.12 0.13 0.18
0.00 0.01 0.03 0.05 0.05 0.05 0.06 0.09 0.14 0.28 0.36 0.51 0.45 0.69 1.17 1.04 0.64 0.59 0.65 0.58 0.62 0.56 0.42 0.25 0.21 0.22 0.18 0.16 0.17 0.20 0.17 0.16 0.16 0.15 0.14 0.14 0.16 0.19 0.22 0.24 0.29 0.31 0.30 0.27 0.22 0.18 0.16 0.18 0.22
0.00 0.01 0.03 0.03 0.03 0.03 0.04 0.07 0.10 0.19 0.35 0.57 0.62 0.68 0.91 0.81 0.77 0.83 0.91 0.96 0.97 1.03 0.83 0.43 0.32 0.29 0.26 0.21 0.21 0.26 0.26 0.23 0.22 0.23 0.25 0.28 0.33 0.39 0.50 0.49 0.54 0.53 0.50 0.47 0.43 0.40 0.37 0.34 0.28
0.00 0.01 0.02 0.01 0.02 0.02 0.03 0.05 0.13 0.24 0.51 0.81 0.86 0.88 1.05 0.99 0.80 0.83 0.88 1.01 1.11 1.19 1.05 0.69 0.54 0.41 0.33 0.29 0.37 0.47 0.45 0.47 0.42 0.50 0.55 0.66 0.82 0.77 0.64 0.78 0.98 0.99 1.00 0.92 0.90 0.89 0.72 0.54 0.50
0.00 0.00 0.00 0.01 0.01 0.01 0.02 0.05 0.14 0.31 0.64 1.09 1.39 1.45 1.31 1.18 1.08 1.02 0.97 1.14 1.34 1.34 1.16 0.89 0.78 0.69 0.55 0.59 0.55 0.61 0.71 0.83 0.70 0.68 0.79 1.07 1.05 0.83 0.79 0.91 1.12 1.33 1.33 1.23 1.44 1.50 1.11 1.05 1.27
0.00 0.00 0.00 0.01 0.00 0.01 0.04 0.07 0.15 0.33 0.62 0.91 1.18 1.50 1.64 1.48 1.47 1.40 1.35 1.59 1.76 1.63 1.44 1.21 1.00 0.87 0.80 0.77 0.73 0.74 0.74 0.90 0.88 1.00 1.04 1.20 1.37 1.28 1.25 1.32 1.35 1.47 1.59 1.83 1.88 1.92 1.72 1.67 1.62
0.00 0.00 0.00 0.01 0.01 0.01 0.04 0.13 0.23 0.36 0.49 0.71 0.90 1.07 1.35 1.68 1.96 1.98 2.01 2.41 2.28 2.11 1.96 1.76 1.42 1.33 1.21 1.20 1.18 1.04 1.05 1.15 1.23 1.35 1.35 1.35 1.54 1.53 1.59 1.60 1.65 1.55 1.66 1.88 2.08 2.03 2.11 2.18 2.00
0.00 0.00 0.01 0.01 0.01 0.02 0.07 0.19 0.24 0.37 0.47 0.63 0.87 1.07 1.60 2.17 2.32 2.51 2.79 3.01 2.92 2.73 2.72 2.51 2.16 2.09 1.93 1.71 1.55 1.49 1.41 1.49 1.51 1.56 1.53 1.60 1.79 1.90 1.84 1.68 1.70 1.65 1.70 1.81 2.00 2.10 2.39 2.35 2.25
0.00 0.02 0.03 0.03 0.03 0.04 0.08 0.24 0.30 0.41 0.51 0.73 1.09 1.28 1.73 2.05 2.29 2.38 2.75 2.95 2.93 2.92 3.08 3.07 2.93 2.90 2.72 2.44 2.09 1.88 1.87 1.78 1.85 1.90 1.86 1.94 2.00 2.09 2.01 1.84 1.70 1.77 1.82 1.91 1.94 2.08 2.36 2.30 2.18
0.02 0.05 0.08 0.07 0.07 0.08 0.15 0.47 0.42 0.52 0.74 1.03 1.29 1.44 1.68 1.81 2.14 2.25 2.55 2.87 3.02 3.10 3.28 3.49 3.51 3.48 3.27 2.97 2.64 2.39 2.24 2.15 2.11 2.07 2.03 1.98 2.08 2.10 2.06 1.86 1.68 1.86 1.87 1.92 2.05 2.14 2.27 2.38 2.39
0.04 0.06 0.13 0.17 0.15 0.11 0.25 0.65 0.67 0.77 0.93 1.07 1.19 1.42 1.58 1.57 1.90 2.28 2.56 3.01 3.26 3.41 3.79 4.16 4.23 4.14 3.78 3.35 3.04 2.92 2.75 2.51 2.30 2.25 2.08 2.02 2.05 1.98 2.05 1.82 1.72 1.89 2.04 2.01 1.85 2.15 2.37 2.35 2.36
0.04 0.06 0.10 0.15 0.16 0.16 0.33 0.54 0.66 0.83 0.98 1.10 1.10 1.21 1.27 1.40 1.86 2.36 2.64 2.88 3.41 3.93 4.46 4.48 4.41 4.65 4.41 4.03 3.71 3.37 3.03 2.77 2.53 2.34 2.12 1.88 1.76 1.80 2.00 1.73 1.73 1.95 2.03 1.96 2.03 2.21 2.36 2.24 2.30
0.05 0.09 0.16 0.18 0.16 0.29 0.48 0.63 0.73 0.85 0.91 1.02 1.15 1.13 1.15 1.43 1.84 2.25 2.55 2.86 3.24 3.82 4.26 4.59 4.62 4.54 4.38 4.09 3.63 3.18 2.77 2.61 2.39 2.17 1.97 1.85 1.80 1.89 2.15 1.88 1.91 1.92 1.86 1.84 2.03 2.15 2.06 1.93 2.33
0.07 0.13 0.21 0.25 0.19 0.28 0.48 0.71 0.85 0.87 0.86 0.94 1.11 1.30 1.33 1.55 1.80 2.18 2.57 2.82 2.93 3.18 3.57 3.88 3.95 3.61 3.24 3.06 2.95 2.78 2.68 2.39 2.21 2.18 2.16 1.99 1.95 1.92 1.94 1.97 1.87 1.86 1.83 1.67 1.76 1.98 1.86 1.55 1.96
0.10 0.11 0.12 0.17 0.19 0.31 0.51 0.86 0.97 0.82 0.78 0.87 1.00 1.29 1.50 1.52 1.69 1.97 2.37 2.54 2.60 2.69 2.82 2.89 2.87 2.75 2.67 2.70 2.76 2.80 2.84 2.58 2.46 2.40 2.36 2.13 2.05 1.99 2.02 1.87 1.70 1.66 1.61 1.49 1.49 1.66 1.72 1.53 1.55
0.13 0.08 0.06 0.09 0.21 0.47 0.59 1.02 1.10 0.90 0.87 0.92 0.97 1.07 1.18 1.29 1.33 1.43 1.69 2.04 1.99 2.05 2.27 2.57 2.61 2.56 2.65 2.86 2.88 2.81 2.71 2.67 2.69 2.78 2.75 2.61 2.38 2.17 2.00 1.78 1.57 1.41 1.33 1.30 1.21 1.38 1.48 1.51 1.28
0.07 0.05 0.06 0.09 0.19 0.39 0.49 0.76 1.01 1.04 0.95 0.87 0.86 0.93 0.94 1.01 1.05 1.05 1.20 1.61 1.74 1.69 1.90 2.23 2.57 2.69 2.85 3.05 3.09 3.13 3.03 2.93 2.82 2.80 2.70 2.51 2.35 2.14 1.88 1.69 1.53 1.40 1.28 1.20 1.16 1.22 1.21 1.23 1.13
0.05 0.07 0.15 0.22 0.40 0.76 0.61 0.64 1.04 1.04 0.87 0.76 0.65 0.67 0.70 0.71 0.74 0.81 0.96 1.40 1.77 1.83 1.91 2.02 2.29 2.59 2.81 2.90 2.91 2.88 2.77 2.67 2.50 2.36 2.11 1.90 1.80 1.69 1.57 1.45 1.31 1.22 1.20 1.21 1.15 1.12 1.10 1.10 1.10
0.06 0.16 0.52 0.83 1.11 1.15 0.61 0.63 0.94 0.78 0.72 0.65 0.68 0.69 0.53 0.47 0.55 0.59 0.63 0.76 0.93 1.12 1.27 1.38 1.55 1.84 2.08 2.24 2.24 2.14 2.17 2.08 1.86 1.67 1.52 1.31 1.16 1.04 0.99 1.02 1.02 0.99 0.95 0.95 0.97 0.92 0.92 0.99 1.05
0.07 0.10 0.32 0.53 0.68 0.82 0.75 1.03 1.00 0.67 0.55 0.55 0.58 0.50 0.36 0.32 0.33 0.35 0.37 0.40 0.57 0.78 1.01 1.13 1.20 1.29 1.46 1.55 1.53 1.49 1.53 1.50 1.34 1.32 1.17 1.01 0.89 0.80 0.82 0.84 0.84 0.81 0.81 0.81 0.85 0.80 0.78 0.79 0.84
0.06 0.06 0.09 0.16 0.26 0.53 0.82 1.17 1.06 0.68 0.58 0.54 0.40 0.29 0.23 0.18 0.17 0.18 0.21 0.26 0.35 0.55 0.74 0.83 0.95 1.05 1.18 1.31 1.22 1.11 1.05 1.05 1.03 1.02 0.98 0.92 0.92 0.83 0.87 0.86 0.86 0.84 0.83 0.84 0.82 0.77 0.76 0.85 0.88
0.07 0.07 0.08 0.12 0.26 0.46 0.73 1.07 1.16 0.81 0.73 0.56 0.42 0.36 0.23 0.14 0.12 0.12 0.15 0.19 0.22 0.30 0.47 0.64 0.78 0.92 1.02 1.12 1.05 0.91 0.88 0.85 0.84 0.86 0.87 0.86 0.86 0.89 0.91 0.88 0.88 0.87 0.86 0.82 0.77 0.73 0.74 0.84 0.93
0.10 0.09 0.09 0.10 0.13 0.30 0.58 0.78 0.73 0.62 0.50 0.42 0.39 0.31 0.18 0.16 0.13 0.12 0.18 0.23 0.29 0.38 0.52 0.64 0.75 0.82 0.91 0.93 0.89 0.84 0.80 0.81 0.83 0.81 0.80 0.81 0.85 0.89 0.90 0.89 0.86 0.82 0.81 0.81 0.81 0.78 0.85 0.91 0.93
0.11 0.10 0.12 0.15 0.13 0.16 0.30 0.51 0.38 0.31 0.31 0.32 0.28 0.27 0.19 0.20 0.20 0.21 0.25 0.31 0.38 0.45 0.55 0.66 0.76 0.81 0.91 0.99 1.07 1.12 1.12 1.10 1.04 0.90 0.84 0.87 0.92 0.96 0.98 0.95 0.92 0.84 0.85 0.95 0.98 0.97 1.03 1.05 1.01

GEFSSGP_prec_meanprecacc_156.txt.gz
Total_Precipitation_Accumulation
0.01 0.04 0.18 0.35 0.56 0.98 1.01 0.57 0.38 0.34 0.35 0.37 0.47 0.47 0.39 0.37 0.50 0.84 0.29 0.06 0.03 0.01 0.02 0.06 0.07 0.06 0.06 0.08 0.11 0.12 0.12 0.13 0.13 0.12 0.10 0.10 0.08 0.07 0.08 0.09 0.12 0.15 0.15 0.15 0.15 0.15 0.16 0.18 0.21
0.00 0.04 0.16 0.35 0.79 1.35 1.07 0.51 0.34 0.37 0.38 0.38 0.42 0.50 0.52 0.36 0.23 0.19 0.12 0.06 0.04 0.02 0.02 0.04 0.07 0.07 0.06 0.07 0.09 0.11 0.11 0.11 0.12 0.10 0.10 0.11 0.09 0.10 0.12 0.12 0.14 0.17 0.18 0.16 0.14 0.14 0.14 0.15 0.19
0.01 0.04 0.12 0.31 0.67 0.96 0.75 0.34 0.29 0.29 0.40 0.46 0.47 0.47 0.50 0.32 0.21 0.12 0.11 0.08 0.05 0.03 0.04 0.08 0.10 0.07 0.07 0.07 0.09 0.10 0.10 0.10 0.10 0.10 0.11 0.11 0.11 0.13 0.14 0.15 0.16 0.17 0.18 0.16 0.14 0.13 0.14 0.15 0.18
0.01 0.05 0.13 0.28 0.35 0.37 0.34 0.24 0.23 0.23 0.33 0.42 0.54 0.53 0.42 0.27 0.24 0.20 0.13 0.11 0.06 0.05 0.06 0.08 0.10 0.08 0.07 0.07 0.08 0.10 0.11 0.10 0.11 0.12 0.12 0.14 0.14 0.15 0.15 0.15 0.15 0.18 0.18 0.18 0.15 0.11 0.12 0.16 0.18
0.01 0.06 0.18 0.26 0.21 0.25 0.25 0.23 0.22 0.20 0.30 0.43 0.48 0.56 0.53 0.35 0.26 0.19 0.13 0.15 0.10 0.07 0.06 0.07 0.10 0.10 0.08 0.08 0.09 0.10 0.10 0.10 0.11 0.12 0.12 0.13 0.14 0.16 0.17 0.17 0.16 0.18 0.19 0.19 0.15 0.13 0.14 0.16 0.20
0.01 0.06 0.15 0.17 0.13 0.13 0.17 0.16 0.19 0.22 0.32 0.52 0.48 0.55 0.69 0.51 0.36 0.27 0.17 0.17 0.15 0.11 0.07 0.08 0.13 0.14 0.12 0.11 0.12 0.12 0.11 0.11 0.12 0.13 0.12 0.12 0.14 0.16 0.17 0.19 0.18 0.20 0.21 0.19 0.16 0.16 0.18 0.19 0.24
0.01 0.03 0.08 0.12 0.08 0.08 0.11 0.13 0.18 0.21 0.37 0.64 0.52 0.67 0.93 0.86 0.51 0.40 0.38 0.29 0.25 0.23 0.20 0.14 0.14 0.17 0.17 0.17 0.16 0.16 0.14 0.14 0.14 0.15 0.13 0.14 0.15 0.16 0.18 0.23 0.25 0.25 0.23 0.21 0.16 0.14 0.15 0.19 0.25
0.00 0.01 0.03 0.05 0.05 0.05 0.06 0.10 0.14 0.28 0.36 0.51 0.45 0.69 1.17 1.04 0.64 0.59 0.65 0.58 0.62 0.56 0.42 0.26 0.23 0.23 0.19 0.16 0.18 0.20 0.18 0.17 0.17 0.16 0.16 0.17 0.19 0.21 0.24 0.26 0.32 0.34 0.33 0.29 0.25 0.20 0.20 0.24 0.29
0.00 0.01 0.03 0.03 0.03 0.03 0.04 0.07 0.10 0.19 0.35 0.57 0.62 0.69 0.91 0.81 0.77 0.83 0.91 0.96 0.97 1.04 0.83 0.46 0.35 0.32 0.29 0.23 0.22 0.27 0.27 0.25 0.23 0.26 0.27 0.32 0.38 0.43 0.53 0.51 0.57 0.56 0.53 0.50 0.47 0.44 0.40 0.38 0.32
0.00 0.01 0.02 0.01 0.02 0.02 0.03 0.05 0.13 0.24 0.52 0.81 0.86 0.88 1.05 0.99 0.81 0.84 0.88 1.02 1.11 1.20 1.07 0.71 0.57 0.45 0.37 0.32 0.40 0.50 0.48 0.50 0.45 0.54 0.58 0.71 0.87 0.82 0.66 0.80 1.01 1.02 1.02 0.94 0.93 0.92 0.75 0.56 0.53
0.00 0.00 0.00 0.01 0.01 0.01 0.02 0.05 0.14 0.32 0.65 1.09 1.39 1.45 1.31 1.18 1.09 1.03 0.97 1.14 1.35 1.36 1.19 0.92 0.82 0.73 0.58 0.63 0.58 0.64 0.74 0.86 0.74 0.72 0.82 1.10 1.07 0.85 0.81 0.94 1.17 1.38 1.36 1.27 1.46 1.52 1.13 1.07 1.30
0.00 0.00 0.00 0.01 0.00 0.01 0.04 0.07 0.15 0.33 0.62 0.91 1.18 1.50 1.64 1.48 1.48 1.42 1.37 1.60 1.78 1.66 1.47 1.24 1.04 0.90 0.84 0.81 0.76 0.76 0.76 0.92 0.90 1.02 1.06 1.22 1.39 1.30 1.27 1.36 1.40 1.52 1.64 1.89 1.91 1.96 1.74 1.69 1.63
0.00 0.00 0.00 0.01 0.01 0.01 0.04 0.13 0.23 0.36 0.49 0.71 0.90 1.07 1.35 1.68 1.96 2.00 2.04 2.44 2.31 2.13 1.99 1.79 1.46 1.36 1.24 1.24 1.20 1.06 1.06 1.16 1.25 1.37 1.37 1.36 1.55 1.54 1.60 1.63 1.68 1.59 1.70 1.92 2.11 2.05 2.13 2.21 2.03
0.00 0.00 0.01 0.01 0.01 0.02 0.07 0.19 0.24 0.37 0.47 0.63 0.87 1.07 1.60 2.18 2.33 2.53 2.82 3.06 2.94 2.76 2.76 2.55 2.21 2.13 1.96 1.74 1.57 1.51 1.42 1.50 1.52 1.57 1.54 1.61 1.80 1.92 1.86 1.71 1.73 1.69 1.74 1.84 2.03 2.13 2.42 2.38 2.28
0.00 0.02 0.03 0.03 0.03 0.04 0.08 0.24 0.30 0.41 0.51 0.73 1.09 1.28 1.73 2.06 2.31 2.41 2.79 3.00 2.96 2.95 3.13 3.13 2.96 2.94 2.77 2.47 2.12 1.90 1.87 1.78 1.86 1.92 1.87 1.95 2.01 2.11 2.04 1.87 1.73 1.80 1.87 1.96 1.99 2.12 2.39 2.34 2.22
0.02 0.05 0.08 0.07 0.07 0.08 0.15 0.47 0.42 0.52 0.74 1.03 1.29 1.44 1.68 1.82 2.16 2.27 2.58 2.91 3.06 3.16 3.35 3.55 3.55 3.52 3.31 3.01 2.67 2.41 2.25 2.17 2.14 2.09 2.05 2.00 2.11 2.14 2.10 1.90 1.72 1.91 1.91 1.97 2.12 2.20 2.33 2.44 2.46
0.04 0.06 0.13 0.17 0.15 0.11 0.25 0.65 0.67 0.77 0.93 1.07 1.19 1.42 1.59 1.58 1.92 2.31 2.59 3.06 3.33 3.49 3.87 4.23 4.28 4.18 3.82 3.39 3.09 2.96 2.78 2.54 2.34 2.30 2.13 2.06 2.10 2.04 2.10 1.88 1.77 1.94 2.10 2.07 1.89 2.19 2.43 2.42 2.45
0.04 0.06 0.10 0.15 0.16 0.16 0.33 0.54 0.66 0.83 0.98 1.10 1.10 1.21 1.27 1.41 1.88 2.39 2.68 2.95 3.50 4.00 4.55 4.57 4.49 4.70 4.47 4.09 3.78 3.44 3.11 2.84 2.58 2.40 2.20 1.97 1.84 1.86 2.07 1.79 1.79 2.00 2.10 2.03 2.08 2.28 2.43 2.32 2.38
0.05 0.09 0.16 0.18 0.16 0.29 0.48 0.63 0.73 0.85 0.91 1.02 1.15 1.13 1.15 1.44 1.89 2.30 2.59 2.91 3.28 3.87 4.35 4.72 4.73 4.60 4.44 4.15 3.68 3.23 2.83 2.67 2.44 2.22 2.01 1.92 1.87 1.94 2.21 1.96 1.98 1.99 1.93 1.92 2.09 2.21 2.12 1.99 2.40
0.07 0.13 0.21 0.25 0.19 0.28 0.48 0.71 0.85 0.87 0.86 0.94 1.11 1.30 1.33 1.56 1.85 2.22 2.59 2.84 2.95 3.21 3.64 3.99 4.08 3.72 3.34 3.16 3.07 2.87 2.75 2.44 2.26 2.22 2.20 2.05 2.01 2.00 2.01 2.06 1.95 1.94 1.93 1.78 1.86 2.06 1.91 1.60 2.01
0.10 0.11 0.12 0.17 0.19 0.31 0.51 0.86 0.97 0.82 0.78 0.87 1.00 1.29 1.50 1.52 1.71 1.99 2.39 2.55 2.61 2.71 2.85 2.96 3.00 2.90 2.80 2.84 2.95 2.97 2.98 2.68 2.54 2.46 2.42 2.19 2.11 2.07 2.10 1.94 1.77 1.74 1.69 1.58 1.59 1.76 1.82 1.60 1.60
0.13 0.08 0.06 0.09 0.21 0.48 0.59 1.02 1.10 0.90 0.87 0.92 0.97 1.07 1.18 1.29 1.34 1.44 1.70 2.05 2.00 2.06 2.31 2.64 2.73 2.72 2.79 2.98 3.00 2.98 2.89 2.82 2.81 2.89 2.86 2.70 2.46 2.24 2.06 1.83 1.63 1.48 1.39 1.38 1.28 1.45 1.57 1.60 1.35
0.07 0.05 0.06 0.09 0.19 0.39 0.49 0.77 1.02 1.04 0.96 0.87 0.87 0.93 0.94 1.01 1.05 1.06 1.20 1.62 1.75 1.70 1.93 2.29 2.66 2.82 2.96 3.14 3.19 3.32 3.25 3.09 2.96 2.94 2.87 2.64 2.46 2.24 1.95 1.76 1.60 1.46 1.34 1.27 1.23 1.30 1.28 1.30 1.21
0.05 0.07 0.15 0.22 0.40 0.76 0.61 0.64 1.04 1.04 0.87 0.76 0.66 0.68 0.71 0.72 0.75 0.82 0.97 1.41 1.78 1.84 1.93 2.06 2.34 2.65 2.88 3.00 3.04 3.04 2.98 2.87 2.65 2.49 2.25 2.02 1.92 1.81 1.65 1.52 1.38 1.29 1.26 1.28 1.23 1.20 1.18 1.18 1.19
0.06 0.16 0.52 0.84 1.11 1.15 0.61 0.63 0.94 0.78 0.72 0.65 0.69 0.70 0.54 0.48 0.55 0.60 0.64 0.77 0.94 1.13 1.29 1.40 1.58 1.88 2.14 2.32 2.37 2.29 2.34 2.28 2.05 1.83 1.64 1.42 1.26 1.14 1.08 1.09 1.09 1.06 1.02 1.01 1.04 1.01 0.99 1.06 1.13
0.07 0.10 0.32 0.53 0.68 0.82 0.75 1.03 1.00 0.68 0.55 0.55 0.58 0.52 0.37 0.34 0.35 0.36 0.38 0.41 0.58 0.80 1.03 1.15 1.23 1.33 1.52 1.64 1.68 1.65 1.67 1.63 1.46 1.46 1.29 1.13 0.98 0.87 0.90 0.91 0.91 0.87 0.86 0.86 0.92 0.88 0.85 0.87 0.92
0.06 0.06 0.09 0.16 0.26 0.53 0.83 1.17 1.06 0.68 0.58 0.54 0.41 0.30 0.25 0.20 0.19 0.19 0.22 0.27 0.37 0.58 0.77 0.86 0.98 1.10 1.25 1.38 1.35 1.30 1.20 1.15 1.13 1.13 1.09 1.02 1.00 0.90 0.93 0.93 0.93 0.91 0.90 0.91 0.89 0.84 0.84 0.92 0.95
0.07 0.07 0.08 0.12 0.26 0.46 0.74 1.07 1.16 0.81 0.73 0.56 0.42 0.37 0.24 0.15 0.13 0.14 0.16 0.21 0.26 0.34 0.50 0.67 0.81 0.97 1.07 1.18 1.14 1.07 1.07 1.00 0.95 0.95 0.95 0.94 0.96 0.97 0.99 0.96 0.97 0.95 0.92 0.89 0.84 0.78 0.81 0.93 1.01
0.10 0.10 0.09 0.10 0.13 0.30 0.58 0.78 0.73 0.62 0.50 0.42 0.39 0.31 0.19 0.17 0.13 0.13 0.19 0.25 0.33 0.44 0.57 0.68 0.78 0.87 0.97 0.98 0.95 0.95 0.94 0.96 0.94 0.88 0.87 0.88 0.95 1.00 1.03 1.01 0.97 0.91 0.87 0.87 0.88 0.83 0.91 0.98 1.02
0.11 0.10 0.12 0.15 0.13 0.16 0.30 0.51 0.38 0.31 0.31 0.32 0.29 0.27 0.19 0.20 0.21 0.22 0.26 0.32 0.40 0.49 0.59 0.70 0.79 0.85 0.94 1.03 1.11 1.17 1.20 1.21 1.13 0.97 0.91 0.95 1.01 1.08 1.11 1.09 1.06 0.96 0.93 1.02 1.03 1.02 1.09 1.12 1.08

GEFSSGP_prec_meanprecacc_162.txt.gz
Total_Precipitation_Accumulation
0.01 0.04 0.18 0.35 0.61 1.04 1.02 0.58 0.38 0.34 0.35 0.37 0.47 0.47 0.39 0.38 0.54 0.91 0.30 0.06 0.03 0.01 0.02 0.06 0.07 0.06 0.07 0.09 0.13 0.14 0.14 0.15 0.15 0.14 0.12 0.11 0.10 0.10 0.10 0.14 0.16 0.18 0.18 0.19 0.19 0.18 0.18 0.20 0.22
0.00 0.04 0.16 0.38 0.86 1.38 1.08 0.51 0.34 0.37 0.38 0.38 0.42 0.50 0.54 0.36 0.23 0.19 0.12 0.06 0.04 0.02 0.02 0.04 0.08 0.07 0.07 0.09 0.11 0.13 0.14 0.14 0.14 0.12 0.13 0.13 0.12 0.14 0.15 0.17 0.19 0.21 0.21 0.20 0.18 0.17 0.17 0.17 0.22
0.01 0.04 0.12 0.35 0.72 0.97 0.75 0.34 0.29 0.29 0.40 0.46 0.47 0.47 0.51 0.32 0.21 0.12 0.11 0.08 0.05 0.03 0.04 0.08 0.10 0.08 0.07 0.08 0.11 0.12 0.12 0.12 0.13 0.13 0.14 0.14 0.15 0.17 0.19 0.20 0.21 0.22 0.23 0.21 0.18 0.16 0.16 0.17 0.21
0.01 0.05 0.13 0.30 0.38 0.38 0.34 0.24 0.23 0.23 0.33 0.42 0.54 0.53 0.42 0.27 0.24 0.20 0.13 0.11 0.06 0.05 0.06 0.08 0.10 0.09 0.08 0.07 0.09 0.12 0.12 0.12 0.14 0.15 0.16 0.17 0.18 0.20 0.19 0.19 0.19 0.23 0.22 0.21 0.17 0.14 0.15 0.18 0.20
0.01 0.06 0.21 0.29 0.23 0.25 0.25 0.23 0.22 0.20 0.30 0.43 0.48 0.57 0.53 0.35 0.26 0.19 0.13 0.15 0.10 0.07 0.06 0.07 0.10 0.10 0.09 0.08 0.10 0.11 0.12 0.12 0.13 0.14 0.14 0.17 0.19 0.21 0.20 0.20 0.19 0.22 0.22 0.21 0.17 0.15 0.17 0.18 0.21
0.01 0.09 0.20 0.19 0.14 0.13 0.17 0.16 0.19 0.23 0.32 0.53 0.48 0.56 0.69 0.51 0.36 0.27 0.17 0.17 0.15 0.11 0.07 0.08 0.13 0.14 0.12 0.12 0.13 0.13 0.12 0.13 0.14 0.14 0.14 0.15 0.17 0.19 0.21 0.21 0.21 0.23 0.24 0.21 0.17 0.19 0.21 0.23 0.27
0.01 0.06 0.12 0.13 0.09 0.09 0.11 0.14 0.19 0.21 0.37 0.64 0.52 0.67 0.93 0.86 0.51 0.40 0.38 0.29 0.25 0.23 0.20 0.14 0.14 0.17 0.17 0.18 0.17 0.16 0.15 0.15 0.15 0.16 0.15 0.16 0.18 0.18 0.20 0.26 0.29 0.28 0.27 0.24 0.19 0.17 0.18 0.21 0.27
0.00 0.01 0.04 0.06 0.05 0.06 0.06 0.10 0.14 0.28 0.37 0.52 0.45 0.69 1.17 1.04 0.64 0.59 0.65 0.58 0.62 0.57 0.43 0.26 0.23 0.23 0.20 0.17 0.18 0.21 0.18 0.18 0.18 0.17 0.17 0.18 0.21 0.23 0.26 0.29 0.34 0.36 0.35 0.33 0.28 0.23 0.22 0.26 0.31
0.00 0.01 0.03 0.04 0.03 0.04 0.04 0.07 0.10 0.19 0.36 0.57 0.62 0.69 0.91 0.81 0.77 0.83 0.91 0.97 0.98 1.05 0.86 0.51 0.37 0.33 0.31 0.24 0.22 0.27 0.28 0.26 0.25 0.28 0.29 0.35 0.44 0.48 0.56 0.55 0.58 0.57 0.54 0.51 0.49 0.45 0.41 0.39 0.34
0.00 0.01 0.02 0.02 0.02 0.03 0.03 0.06 0.13 0.24 0.52 0.83 0.87 0.88 1.05 0.99 0.81 0.84 0.89 1.02 1.12 1.23 1.09 0.80 0.67 0.49 0.40 0.35 0.42 0.53 0.51 0.52 0.50 0.60 0.61 0.79 1.01 0.94 0.74 0.84 1.02 1.03 1.03 0.96 0.94 0.93 0.76 0.59 0.55
0.00 0.00 0.01 0.01 0.01 0.01 0.02 0.06 0.14 0.32 0.67 1.13 1.41 1.45 1.32 1.18 1.09 1.04 0.98 1.15 1.35 1.37 1.21 0.97 0.91 0.78 0.61 0.67 0.60 0.68 0.80 0.92 0.81 0.81 0.89 1.20 1.16 0.91 0.87 0.98 1.19 1.41 1.38 1.31 1.47 1.54 1.20 1.14 1.36
0.00 0.00 0.00 0.01 0.01 0.01 0.05 0.07 0.15 0.34 0.67 0.97 1.21 1.51 1.64 1.48 1.49 1.43 1.39 1.62 1.80 1.68 1.50 1.28 1.11 0.94 0.88 0.84 0.79 0.79 0.79 0.95 0.96 1.08 1.11 1.28 1.47 1.38 1.34 1.41 1.46 1.59 1.72 1.98 1.98 2.02 1.81 1.74 1.65
0.00 0.00 0.00 0.01 0.01 0.01 0.05 0.14 0.24 0.36 0.49 0.72 0.90 1.08 1.36 1.69 1.97 2.01 2.06 2.47 2.34 2.16 2.02 1.82 1.49 1.39 1.28 1.29 1.25 1.09 1.10 1.20 1.29 1.42 1.41 1.40 1.60 1.61 1.68 1.70 1.76 1.66 1.77 1.97 2.18 2.11 2.18 2.24 2.04
0.00 0.00 0.01 0.01 0.01 0.02 0.07 0.20 0.24 0.37 0.47 0.63 0.87 1.07 1.61 2.19 2.35 2.57 2.87 3.10 2.99 2.79 2.79 2.58 2.23 2.15 1.99 1.77 1.62 1.56 1.45 1.55 1.57 1.63 1.57 1.63 1.85 1.98 1.93 1.77 1.79 1.74 1.78 1.87 2.06 2.16 2.46 2.40 2.31
0.00 0.02 0.03 0.03 0.03 0.04 0.08 0.25 0.31 0.41 0.51 0.73 1.09 1.29 1.73 2.07 2.33 2.44 2.84 3.06 3.02 3.00 3.17 3.17 3.00 2.98 2.81 2.51 2.16 1.94 1.90 1.80 1.91 1.98 1.92 1.97 2.04 2.17 2.08 1.92 1.77 1.84 1.89 2.00 2.03 2.16 2.43 2.39 2.27
0.02 0.05 0.08 0.07 0.07 0.09 0.16 0.49 0.45 0.53 0.74 1.03 1.29 1.44 1.68 1.83 2.18 2.29 2.62 2.98 3.15 3.24 3.41 3.60 3.59 3.59 3.36 3.06 2.73 2.44 2.28 2.19 2.18 2.14 2.10 2.03 2.14 2.17 2.14 1.95 1.76 1.93 1.93 2.00 2.16 2.24 2.38 2.50 2.52
0.04 0.06 0.13 0.17 0.15 0.12 0.27 0.69 0.70 0.78 0.93 1.07 1.19 1.42 1.59 1.58 1.93 2.33 2.61 3.11 3.41 3.55 3.94 4.29 4.35 4.26 3.89 3.44 3.14 3.01 2.83 2.59 2.37 2.33 2.18 2.10 2.13 2.06 2.13 1.90 1.82 1.98 2.12 2.09 1.93 2.24 2.47 2.49 2.52
0.04 0.06 0.10 0.16 0.16 0.16 0.33 0.55 0.67 0.84 0.98 1.10 1.11 1.22 1.28 1.42 1.89 2.41 2.71 2.99 3.55 4.06 4.61 4.62 4.55 4.79 4.57 4.18 3.86 3.52 3.17 2.88 2.61 2.44 2.24 2.01 1.88 1.88 2.10 1.81 1.82 2.02 2.15 2.08 2.13 2.36 2.50 2.38 2.44
0.05 0.09 0.16 0.18 0.17 0.29 0.48 0.64 0.75 0.86 0.91 1.02 1.16 1.14 1.19 1.49 1.92 2.32 2.64 2.97 3.32 3.92 4.43 4.81 4.81 4.69 4.53 4.23 3.74 3.28 2.88 2.72 2.49 2.25 2.05 1.95 1.90 1.97 2.25 2.00 2.05 2.04 2.00 1.99 2.14 2.27 2.18 2.05 2.45
0.07 0.13 0.21 0.25 0.19 0.28 0.48 0.72 0.89 0.88 0.86 0.94 1.12 1.30 1.34 1.58 1.88 2.26 2.64 2.88 2.98 3.26 3.71 4.09 4.19 3.83 3.44 3.25 3.14 2.93 2.83 2.50 2.32 2.27 2.26 2.07 2.03 2.02 2.04 2.11 2.01 2.01 2.02 1.86 1.94 2.14 2.02 1.70 2.07
0.10 0.11 0.12 0.17 0.19 0.31 0.51 0.87 1.00 0.83 0.79 0.87 1.00 1.29 1.50 1.53 1.75 2.02 2.41 2.57 2.64 2.75 2.90 3.02 3.12 3.03 2.95 2.98 3.05 3.07 3.08 2.76 2.62 2.54 2.48 2.24 2.15 2.10 2.14 1.98 1.82 1.80 1.75 1.67 1.67 1.85 1.91 1.71 1.68
0.13 0.08 0.06 0.09 0.21 0.48 0.60 1.05 1.17 0.94 0.89 0.93 0.97 1.08 1.19 1.29 1.37 1.48 1.73 2.08 2.03 2.10 2.35 2.71 2.82 2.83 2.92 3.12 3.13 3.09 2.98 2.90 2.88 2.97 2.93 2.79 2.54 2.30 2.11 1.88 1.69 1.54 1.46 1.49 1.35 1.55 1.66 1.72 1.44
0.07 0.05 0.06 0.09 0.19 0.39 0.49 0.78 1.04 1.07 1.00 0.89 0.88 0.94 0.95 1.02 1.08 1.09 1.23 1.65 1.78 1.74 1.98 2.36 2.76 2.92 3.07 3.26 3.30 3.41 3.37 3.21 3.05 3.02 2.98 2.76 2.58 2.35 2.04 1.84 1.67 1.53 1.42 1.35 1.31 1.43 1.38 1.39 1.29
0.05 0.07 0.15 0.22 0.40 0.76 0.62 0.67 1.08 1.07 0.90 0.78 0.68 0.69 0.73 0.73 0.76 0.83 1.00 1.45 1.82 1.88 1.99 2.13 2.47 2.81 3.02 3.11 3.13 3.12 3.07 2.98 2.76 2.61 2.36 2.12 2.04 1.93 1.76 1.62 1.49 1.38 1.36 1.37 1.29 1.28 1.25 1.26 1.28
0.06 0.16 0.52 0.84 1.11 1.16 0.62 0.64 0.95 0.80 0.77 0.67 0.70 0.71 0.57 0.49 0.56 0.61 0.65 0.79 0.95 1.14 1.31 1.44 1.65 1.97 2.23 2.40 2.45 2.38 2.43 2.39 2.17 1.95 1.75 1.51 1.34 1.22 1.17 1.19 1.21 1.16 1.13 1.09 1.12 1.09 1.08 1.15 1.21
0.07 0.10 0.33 0.54 0.69 0.83 0.75 1.04 1.01 0.68 0.58 0.56 0.59 0.53 0.40 0.35 0.36 0.36 0.38 0.42 0.59 0.80 1.04 1.18 1.27 1.38 1.60 1.71 1.75 1.74 1.79 1.73 1.57 1.56 1.39 1.22 1.05 0.94 1.00 1.02 1.01 0.97 0.96 0.93 1.02 0.96 0.92 0.95 0.99
0.06 0.06 0.09 0.16 0.27 0.55 0.84 1.18 1.08 0.69 0.59 0.54 0.41 0.31 0.27 0.21 0.19 0.20 0.22 0.27 0.37 0.58 0.79 0.89 1.03 1.15 1.30 1.43 1.41 1.37 1.28 1.27 1.27 1.26 1.20 1.10 1.08 0.98 1.03 1.04 1.06 1.02 0.99 1.01 0.98 0.91 0.91 1.01 1.01
0.07 0.07 0.08 0.13 0.28 0.49 0.76 1.09 1.18 0.82 0.73 0.56 0.42 0.37 0.24 0.15 0.13 0.14 0.16 0.21 0.26 0.36 0.54 0.71 0.85 1.01 1.12 1.24 1.21 1.15 1.17 1.11 1.09 1.08 1.06 1.03 1.05 1.07 1.10 1.06 1.09 1.07 1.03 1.00 0.96 0.87 0.90 1.02 1.10
0.10 0.10 0.10 0.11 0.14 0.33 0.63 0.82 0.77 0.66 0.52 0.43 0.40 0.32 0.19 0.17 0.13 0.13 0.19 0.25 0.34 0.46 0.60 0.74 0.85 0.94 1.03 1.03 1.03 1.05 1.04 1.06 1.07 0.99 0.96 0.99 1.06 1.11 1.14 1.12 1.09 1.04 1.00 1.01 1.02 0.94 1.00 1.09 1.13
0.11 0.11 0.12 0.16 0.14 0.16 0.33 0.57 0.47 0.38 0.35 0.34 0.30 0.29 0.19 0.20 0.21 0.22 0.26 0.33 0.41 0.50 0.62 0.76 0.88 0.98 1.05 1.09 1.18 1.25 1.29 1.30 1.24 1.11 1.03 1.07 1.13 1.19 1.22 1.22 1.20 1.11 1.10 1.20 1.20 1.14 1.19 1.23 1.20

GEFSSGP_prec_meanprecacc_168.txt.gz
Total_Precipitation_Accumulation
0.01 0.05 0.21 0.39 0.67 1.10 1.05 0.58 0.38 0.34 0.35 0.37 0.48 0.48 0.40 0.40 0.56 0.93 0.31 0.06 0.03 0.01 0.02 0.06 0.07 0.06 0.07 0.09 0.13 0.14 0.14 0.15 0.16 0.15 0.13 0.13 0.13 0.12 0.12 0.15 0.17 0.19 0.20 0.20 0.20 0.19 0.19 0.22 0.25
0.01 0.06 0.19 0.43 0.94 1.43 1.10 0.51 0.34 0.38 0.39 0.39 0.43 0.51 0.55 0.37 0.24 0.20 0.12 0.06 0.04 0.02 0.02 0.04 0.08 0.07 0.07 0.09 0.11 0.14 0.15 0.15 0.15 0.14 0.15 0.15 0.16 0.19 0.18 0.19 0.20 0.22 0.23 0.21 0.19 0.17 0.18 0.19 0.24
0.03 0.08 0.19 0.50 0.80 1.01 0.78 0.35 0.30 0.30 0.41 0.46 0.47 0.47 0.52 0.33 0.21 0.13 0.12 0.09 0.06 0.03 0.04 0.08 0.10 0.08 0.08 0.09 0.11 0.13 0.13 0.13 0.14 0.14 0.15 0.16 0.17 0.21 0.24 0.23 0.23 0.24 0.25 0.22 0.19 0.17 0.17 0.18 0.22
0.03 0.08 0.21 0.43 0.44 0.41 0.38 0.27 0.24 0.24 0.34 0.42 0.54 0.54 0.42 0.27 0.24 0.20 0.13 0.12 0.06 0.05 0.06 0.08 0.11 0.09 0.08 0.08 0.10 0.13 0.13 0.12 0.15 0.16 0.16 0.18 0.19 0.21 0.21 0.20 0.21 0.25 0.24 0.22 0.18 0.16 0.16 0.19 0.22
0.03 0.09 0.29 0.36 0.29 0.31 0.32 0.26 0.24 0.21 0.32 0.45 0.49 0.57 0.54 0.36 0.26 0.19 0.14 0.15 0.10 0.07 0.06 0.08 0.10 0.10 0.09 0.09 0.10 0.12 0.12 0.12 0.13 0.15 0.15 0.18 0.21 0.22 0.20 0.20 0.21 0.24 0.23 0.23 0.18 0.16 0.18 0.19 0.23
0.03 0.13 0.27 0.24 0.18 0.18 0.22 0.19 0.21 0.24 0.35 0.56 0.49 0.57 0.70 0.52 0.37 0.28 0.18 0.18 0.15 0.11 0.07 0.09 0.13 0.14 0.12 0.12 0.13 0.13 0.13 0.13 0.15 0.15 0.14 0.17 0.19 0.20 0.21 0.22 0.22 0.25 0.26 0.22 0.18 0.20 0.22 0.24 0.29
0.02 0.09 0.17 0.17 0.13 0.13 0.15 0.18 0.22 0.23 0.39 0.68 0.54 0.69 0.95 0.87 0.52 0.40 0.38 0.30 0.26 0.23 0.20 0.14 0.14 0.17 0.17 0.18 0.17 0.17 0.15 0.16 0.17 0.17 0.16 0.18 0.20 0.19 0.21 0.27 0.29 0.29 0.28 0.26 0.20 0.18 0.18 0.22 0.29
0.01 0.03 0.07 0.11 0.11 0.09 0.09 0.13 0.17 0.30 0.40 0.56 0.47 0.70 1.18 1.04 0.65 0.59 0.65 0.59 0.63 0.57 0.43 0.26 0.23 0.23 0.20 0.17 0.18 0.21 0.19 0.18 0.18 0.18 0.18 0.19 0.22 0.24 0.26 0.29 0.35 0.37 0.37 0.35 0.29 0.23 0.22 0.27 0.32
0.02 0.02 0.05 0.07 0.08 0.07 0.06 0.10 0.13 0.24 0.39 0.58 0.64 0.70 0.92 0.81 0.78 0.84 0.92 0.97 0.98 1.05 0.87 0.51 0.37 0.33 0.31 0.24 0.22 0.27 0.28 0.26 0.26 0.29 0.29 0.36 0.45 0.48 0.57 0.55 0.59 0.58 0.55 0.52 0.49 0.46 0.42 0.40 0.35
0.01 0.01 0.03 0.04 0.04 0.06 0.05 0.10 0.17 0.28 0.55 0.84 0.89 0.89 1.06 0.99 0.81 0.85 0.89 1.03 1.12 1.23 1.10 0.80 0.68 0.50 0.41 0.35 0.42 0.54 0.51 0.53 0.50 0.60 0.61 0.79 1.01 0.95 0.75 0.84 1.03 1.04 1.04 0.96 0.94 0.94 0.77 0.60 0.57
0.00 0.01 0.01 0.02 0.02 0.04 0.05 0.09 0.17 0.35 0.71 1.17 1.44 1.46 1.32 1.18 1.09 1.05 1.00 1.16 1.36 1.38 1.22 0.98 0.92 0.81 0.63 0.68 0.60 0.69 0.81 0.93 0.81 0.81 0.89 1.21 1.17 0.93 0.89 0.99 1.20 1.41 1.39 1.31 1.48 1.56 1.23 1.16 1.39
0.00 0.00 0.00 0.01 0.01 0.02 0.06 0.09 0.18 0.37 0.71 1.00 1.24 1.53 1.64 1.48 1.50 1.45 1.41 1.64 1.81 1.69 1.51 1.29 1.14 0.99 0.91 0.86 0.79 0.80 0.80 0.96 0.96 1.09 1.12 1.30 1.49 1.40 1.35 1.42 1.47 1.60 1.72 2.00 2.00 2.06 1.87 1.78 1.70
0.00 0.00 0.01 0.01 0.01 0.02 0.05 0.15 0.26 0.40 0.54 0.76 0.92 1.09 1.36 1.69 2.00 2.07 2.12 2.51 2.36 2.18 2.04 1.84 1.51 1.42 1.31 1.30 1.27 1.09 1.10 1.20 1.30 1.44 1.44 1.42 1.62 1.63 1.69 1.72 1.77 1.68 1.79 1.99 2.21 2.15 2.23 2.29 2.08
0.00 0.00 0.01 0.01 0.01 0.02 0.07 0.21 0.26 0.43 0.52 0.67 0.89 1.08 1.61 2.19 2.35 2.59 2.92 3.19 3.04 2.83 2.83 2.61 2.26 2.18 2.02 1.80 1.64 1.57 1.46 1.55 1.59 1.66 1.64 1.66 1.87 2.00 1.94 1.78 1.80 1.75 1.80 1.89 2.07 2.19 2.49 2.44 2.34
0.00 0.02 0.03 0.03 0.03 0.04 0.09 0.26 0.35 0.53 0.62 0.75 1.11 1.30 1.74 2.08 2.34 2.46 2.88 3.14 3.09 3.05 3.22 3.22 3.07 3.02 2.83 2.55 2.18 1.96 1.92 1.82 1.93 2.01 1.95 1.99 2.06 2.18 2.10 1.94 1.79 1.85 1.91 2.01 2.04 2.18 2.45 2.43 2.30
0.02 0.05 0.08 0.08 0.08 0.09 0.16 0.53 0.50 0.61 0.82 1.08 1.32 1.46 1.70 1.85 2.20 2.33 2.66 3.05 3.24 3.30 3.48 3.67 3.65 3.63 3.39 3.08 2.74 2.46 2.31 2.23 2.21 2.17 2.12 2.04 2.16 2.19 2.16 1.97 1.77 1.95 1.95 2.02 2.17 2.26 2.41 2.54 2.57
0.04 0.06 0.13 0.17 0.15 0.12 0.28 0.71 0.73 0.83 0.98 1.11 1.23 1.47 1.62 1.62 1.96 2.37 2.66 3.17 3.50 3.63 3.99 4.35 4.42 4.32 3.94 3.49 3.18 3.05 2.87 2.63 2.43 2.37 2.20 2.12 2.14 2.08 2.14 1.92 1.84 1.99 2.15 2.12 1.95 2.27 2.51 2.54 2.57
0.04 0.06 0.10 0.16 0.17 0.17 0.34 0.55 0.69 0.88 1.04 1.16 1.18 1.29 1.33 1.47 1.94 2.47 2.79 3.09 3.67 4.16 4.71 4.70 4.61 4.85 4.64 4.25 3.91 3.60 3.24 2.93 2.66 2.48 2.27 2.04 1.91 1.91 2.13 1.83 1.83 2.05 2.19 2.12 2.15 2.38 2.53 2.41 2.47
0.05 0.09 0.17 0.19 0.17 0.30 0.49 0.65 0.78 0.91 0.96 1.09 1.20 1.19 1.22 1.52 1.95 2.37 2.75 3.09 3.45 4.02 4.52 4.93 4.91 4.76 4.59 4.29 3.79 3.38 2.98 2.78 2.54 2.30 2.10 2.01 1.96 2.05 2.31 2.05 2.09 2.07 2.04 2.03 2.19 2.31 2.21 2.08 2.48
0.08 0.13 0.21 0.26 0.20 0.29 0.49 0.74 0.91 0.93 0.91 0.99 1.14 1.32 1.35 1.60 1.90 2.29 2.73 2.96 3.09 3.39 3.81 4.17 4.29 3.92 3.52 3.32 3.21 3.02 2.93 2.57 2.38 2.35 2.36 2.18 2.15 2.15 2.14 2.17 2.05 2.04 2.05 1.90 1.97 2.17 2.05 1.73 2.10
0.10 0.11 0.12 0.18 0.20 0.32 0.53 0.89 1.02 0.86 0.82 0.90 1.03 1.31 1.51 1.55 1.76 2.04 2.49 2.66 2.70 2.81 2.95 3.07 3.17 3.09 3.03 3.07 3.13 3.15 3.17 2.85 2.72 2.65 2.61 2.36 2.28 2.20 2.21 2.03 1.86 1.84 1.79 1.69 1.68 1.86 1.94 1.74 1.70
0.13 0.08 0.06 0.09 0.22 0.49 0.61 1.07 1.19 0.97 0.91 0.97 1.02 1.13 1.23 1.35 1.41 1.52 1.78 2.14 2.09 2.14 2.39 2.76 2.87 2.88 2.98 3.18 3.20 3.15 3.05 2.99 2.98 3.06 3.05 2.92 2.66 2.40 2.20 1.96 1.76 1.61 1.53 1.53 1.38 1.57 1.68 1.74 1.46
0.07 0.05 0.06 0.10 0.22 0.41 0.51 0.79 1.06 1.09 1.02 0.94 0.92 1.02 1.04 1.09 1.13 1.14 1.27 1.69 1.83 1.79 2.04 2.44 2.82 2.99 3.14 3.32 3.37 3.48 3.43 3.29 3.15 3.14 3.12 2.87 2.70 2.48 2.17 1.97 1.78 1.63 1.51 1.42 1.36 1.47 1.40 1.41 1.31
0.05 0.07 0.15 0.23 0.42 0.79 0.63 0.68 1.09 1.08 0.91 0.81 0.72 0.77 0.86 0.81 0.83 0.90 1.05 1.51 1.87 1.95 2.09 2.21 2.54 2.91 3.13 3.22 3.24 3.21 3.15 3.07 2.87 2.74 2.48 2.22 2.15 2.06 1.89 1.75 1.60 1.48 1.46 1.45 1.36 1.34 1.30 1.30 1.31
0.06 0.16 0.53 0.85 1.13 1.17 0.62 0.65 0.96 0.82 0.78 0.69 0.73 0.76 0.66 0.59 0.63 0.66 0.72 0.85 1.00 1.19 1.37 1.51 1.74 2.09 2.37 2.55 2.59 2.48 2.54 2.50 2.27 2.08 1.91 1.66 1.48 1.35 1.31 1.33 1.31 1.26 1.23 1.18 1.20 1.17 1.15 1.19 1.25
0.07 0.11 0.33 0.55 0.70 0.84 0.77 1.07 1.03 0.70 0.60 0.59 0.62 0.58 0.46 0.41 0.41 0.40 0.42 0.46 0.62 0.83 1.08 1.25 1.36 1.48 1.73 1.87 1.90 1.89 1.91 1.83 1.66 1.69 1.53 1.34 1.17 1.06 1.10 1.14 1.12 1.08 1.08 1.04 1.11 1.03 0.98 1.00 1.03
0.06 0.06 0.10 0.16 0.27 0.56 0.88 1.22 1.10 0.73 0.63 0.58 0.45 0.36 0.31 0.25 0.23 0.24 0.26 0.31 0.40 0.60 0.81 0.94 1.10 1.23 1.42 1.61 1.57 1.52 1.41 1.37 1.38 1.37 1.32 1.23 1.20 1.11 1.16 1.14 1.15 1.11 1.11 1.15 1.12 1.01 0.98 1.06 1.04
0.07 0.08 0.08 0.13 0.29 0.51 0.79 1.14 1.24 0.92 0.81 0.63 0.49 0.45 0.29 0.20 0.17 0.19 0.22 0.29 0.31 0.40 0.60 0.79 0.92 1.08 1.20 1.34 1.33 1.25 1.26 1.19 1.18 1.17 1.16 1.14 1.17 1.23 1.27 1.20 1.20 1.17 1.12 1.11 1.08 0.96 0.97 1.09 1.15
0.10 0.10 0.10 0.11 0.14 0.35 0.68 0.92 0.86 0.81 0.69 0.57 0.52 0.44 0.33 0.25 0.17 0.17 0.22 0.29 0.36 0.48 0.64 0.79 0.90 1.00 1.10 1.09 1.10 1.12 1.09 1.11 1.13 1.06 1.03 1.07 1.17 1.23 1.26 1.24 1.20 1.13 1.08 1.09 1.10 1.01 1.08 1.17 1.21
0.11 0.11 0.12 0.16 0.14 0.17 0.35 0.64 0.53 0.49 0.52 0.51 0.45 0.43 0.36 0.29 0.27 0.27 0.29 0.35 0.43 0.53 0.64 0.78 0.93 1.04 1.13 1.18 1.26 1.32 1.35 1.36 1.30 1.17 1.11 1.16 1.24 1.32 1.35 1.35 1.31 1.19 1.18 1.28 1.30 1.23 1.28 1.33 1.31

GEFSSGP_prec_meanprecacc_174.txt.gz
Total_Precipitation_Accumulation
0.02 0.06 0.22 0.40 0.68 1.11 1.06 0.59 0.38 0.34 0.36 0.38 0.48 0.48 0.41 0.41 0.57 0.93 0.31 0.06 0.03 0.01 0.02 0.06 0.08 0.07 0.08 0.10 0.14 0.15 0.14 0.16 0.16 0.15 0.14 0.15 0.16 0.14 0.13 0.16 0.18 0.20 0.21 0.22 0.22 0.21 0.21 0.24 0.26
0.02 0.07 0.19 0.44 0.95 1.44 1.11 0.52 0.35 0.38 0.39 0.39 0.43 0.51 0.56 0.38 0.25 0.20 0.12 0.06 0.04 0.02 0.02 0.04 0.08 0.08 0.07 0.09 0.12 0.14 0.15 0.15 0.15 0.14 0.15 0.16 0.19 0.22 0.21 0.20 0.21 0.23 0.24 0.23 0.21 0.19 0.20 0.21 0.26
0.03 0.08 0.19 0.51 0.82 1.03 0.80 0.37 0.32 0.31 0.41 0.46 0.47 0.48 0.52 0.33 0.21 0.13 0.12 0.09 0.06 0.03 0.04 0.08 0.10 0.08 0.08 0.09 0.12 0.14 0.14 0.13 0.14 0.14 0.16 0.16 0.19 0.23 0.27 0.24 0.23 0.25 0.27 0.23 0.20 0.18 0.18 0.20 0.25
0.03 0.08 0.22 0.45 0.45 0.43 0.41 0.29 0.27 0.26 0.35 0.43 0.54 0.54 0.43 0.27 0.24 0.20 0.13 0.12 0.06 0.05 0.06 0.08 0.11 0.09 0.08 0.08 0.10 0.14 0.14 0.13 0.16 0.16 0.17 0.18 0.20 0.23 0.24 0.21 0.22 0.27 0.25 0.24 0.21 0.17 0.18 0.22 0.25
0.03 0.09 0.29 0.37 0.30 0.32 0.36 0.29 0.27 0.23 0.33 0.45 0.49 0.57 0.55 0.36 0.26 0.19 0.14 0.15 0.10 0.07 0.06 0.08 0.11 0.10 0.09 0.09 0.11 0.13 0.13 0.13 0.15 0.16 0.17 0.19 0.22 0.24 0.23 0.22 0.22 0.26 0.25 0.25 0.21 0.18 0.21 0.22 0.26
0.03 0.13 0.28 0.25 0.20 0.20 0.24 0.21 0.24 0.26 0.35 0.57 0.50 0.57 0.71 0.53 0.37 0.28 0.18 0.18 0.15 0.11 0.07 0.09 0.14 0.15 0.13 0.13 0.14 0.14 0.13 0.14 0.16 0.16 0.16 0.18 0.21 0.22 0.23 0.23 0.23 0.26 0.28 0.25 0.20 0.22 0.25 0.27 0.32
0.02 0.09 0.18 0.17 0.14 0.15 0.17 0.20 0.25 0.24 0.40 0.69 0.55 0.69 0.95 0.87 0.52 0.40 0.38 0.30 0.26 0.23 0.20 0.15 0.15 0.17 0.18 0.19 0.18 0.18 0.16 0.16 0.17 0.18 0.18 0.20 0.21 0.21 0.22 0.28 0.30 0.30 0.30 0.28 0.23 0.20 0.21 0.24 0.31
0.01 0.03 0.07 0.11 0.12 0.11 0.11 0.15 0.19 0.33 0.43 0.57 0.48 0.71 1.19 1.04 0.65 0.59 0.66 0.59 0.63 0.57 0.43 0.27 0.23 0.24 0.20 0.17 0.20 0.22 0.20 0.19 0.19 0.19 0.19 0.21 0.23 0.25 0.27 0.30 0.36 0.39 0.40 0.36 0.31 0.26 0.25 0.29 0.35
0.02 0.02 0.05 0.07 0.08 0.08 0.07 0.11 0.16 0.28 0.43 0.59 0.64 0.70 0.92 0.81 0.78 0.84 0.93 0.98 0.98 1.06 0.87 0.52 0.37 0.33 0.31 0.25 0.24 0.29 0.30 0.27 0.27 0.30 0.30 0.36 0.45 0.49 0.57 0.57 0.60 0.60 0.56 0.54 0.51 0.49 0.45 0.43 0.38
0.01 0.01 0.03 0.04 0.04 0.06 0.06 0.12 0.20 0.33 0.58 0.86 0.89 0.89 1.06 0.99 0.81 0.85 0.89 1.03 1.12 1.23 1.10 0.80 0.68 0.50 0.41 0.35 0.43 0.55 0.52 0.54 0.50 0.60 0.62 0.79 1.01 0.95 0.75 0.86 1.05 1.06 1.06 0.99 0.97 0.98 0.81 0.62 0.58
0.00 0.01 0.01 0.02 0.02 0.04 0.06 0.11 0.19 0.36 0.72 1.18 1.44 1.47 1.33 1.18 1.09 1.05 1.00 1.16 1.36 1.38 1.22 0.98 0.93 0.82 0.64 0.68 0.61 0.69 0.81 0.93 0.82 0.81 0.90 1.21 1.17 0.93 0.89 0.99 1.21 1.43 1.40 1.32 1.49 1.57 1.24 1.18 1.41
0.00 0.00 0.00 0.01 0.01 0.03 0.07 0.10 0.19 0.37 0.71 1.00 1.24 1.53 1.65 1.49 1.51 1.46 1.41 1.64 1.82 1.70 1.51 1.30 1.14 1.00 0.93 0.88 0.80 0.80 0.80 0.96 0.96 1.09 1.12 1.30 1.49 1.40 1.35 1.42 1.47 1.60 1.72 2.00 2.00 2.06 1.88 1.78 1.71
0.00 0.00 0.01 0.01 0.02 0.03 0.06 0.15 0.26 0.40 0.54 0.76 0.93 1.09 1.36 1.70 2.01 2.09 2.15 2.55 2.39 2.20 2.05 1.85 1.52 1.43 1.33 1.33 1.28 1.10 1.10 1.20 1.30 1.44 1.44 1.42 1.62 1.64 1.70 1.72 1.77 1.68 1.79 1.99 2.23 2.17 2.24 2.30 2.11
0.00 0.00 0.01 0.02 0.02 0.03 0.08 0.21 0.26 0.43 0.52 0.67 0.89 1.09 1.62 2.20 2.36 2.61 2.96 3.27 3.11 2.87 2.86 2.63 2.28 2.20 2.04 1.81 1.65 1.58 1.47 1.55 1.59 1.67 1.64 1.66 1.87 2.00 1.95 1.79 1.81 1.76 1.80 1.89 2.08 2.20 2.51 2.47 2.38
0.00 0.02 0.03 0.04 0.03 0.05 0.09 0.26 0.35 0.53 0.62 0.75 1.11 1.30 1.75 2.09 2.35 2.48 2.92 3.27 3.21 3.13 3.28 3.26 3.09 3.05 2.87 2.57 2.20 1.98 1.93 1.83 1.94 2.02 1.96 2.00 2.06 2.19 2.11 1.96 1.80 1.86 1.92 2.02 2.06 2.20 2.47 2.45 2.33
0.02 0.05 0.08 0.08 0.08 0.10 0.17 0.53 0.50 0.61 0.82 1.08 1.32 1.47 1.71 1.87 2.23 2.36 2.70 3.16 3.37 3.40 3.58 3.77 3.73 3.69 3.43 3.13 2.79 2.50 2.33 2.24 2.23 2.20 2.15 2.07 2.20 2.23 2.19 1.99 1.79 1.97 1.97 2.04 2.20 2.29 2.44 2.57 2.59
0.04 0.06 0.13 0.18 0.16 0.13 0.28 0.71 0.73 0.83 0.98 1.11 1.23 1.47 1.63 1.63 1.98 2.40 2.70 3.22 3.58 3.72 4.09 4.44 4.50 4.39 4.00 3.56 3.30 3.15 2.92 2.67 2.47 2.42 2.26 2.17 2.22 2.15 2.19 1.97 1.88 2.03 2.18 2.16 1.99 2.31 2.55 2.56 2.59
0.04 0.06 0.10 0.16 0.17 0.17 0.34 0.55 0.70 0.88 1.04 1.16 1.18 1.30 1.35 1.49 1.95 2.49 2.81 3.12 3.74 4.25 4.82 4.81 4.70 4.92 4.72 4.35 4.05 3.73 3.33 2.99 2.71 2.54 2.34 2.12 2.00 1.99 2.20 1.89 1.88 2.09 2.23 2.16 2.20 2.44 2.57 2.44 2.51
0.05 0.09 0.17 0.19 0.17 0.31 0.49 0.65 0.79 0.91 0.97 1.09 1.20 1.19 1.23 1.53 1.96 2.38 2.76 3.12 3.50 4.07 4.60 5.08 5.08 4.89 4.71 4.38 3.88 3.46 3.07 2.86 2.62 2.37 2.17 2.09 2.06 2.14 2.40 2.12 2.13 2.12 2.09 2.08 2.25 2.38 2.27 2.12 2.52
0.08 0.13 0.21 0.26 0.20 0.30 0.49 0.74 0.92 0.93 0.91 0.99 1.15 1.33 1.36 1.61 1.91 2.31 2.75 2.99 3.13 3.44 3.87 4.25 4.46 4.09 3.65 3.42 3.31 3.14 3.05 2.68 2.48 2.41 2.41 2.25 2.23 2.23 2.21 2.23 2.09 2.09 2.10 1.95 2.02 2.22 2.09 1.77 2.14
0.10 0.11 0.12 0.18 0.20 0.32 0.53 0.89 1.03 0.87 0.82 0.91 1.04 1.32 1.52 1.56 1.78 2.06 2.52 2.71 2.75 2.87 3.01 3.15 3.27 3.22 3.17 3.21 3.28 3.29 3.30 2.97 2.81 2.71 2.65 2.41 2.35 2.29 2.28 2.09 1.91 1.90 1.85 1.74 1.73 1.90 1.97 1.77 1.74
0.13 0.08 0.06 0.09 0.22 0.49 0.61 1.07 1.19 0.97 0.92 0.98 1.03 1.14 1.24 1.37 1.43 1.56 1.84 2.20 2.17 2.22 2.46 2.85 2.95 2.97 3.11 3.33 3.33 3.26 3.14 3.04 3.02 3.12 3.09 2.99 2.79 2.54 2.32 2.08 1.84 1.69 1.60 1.59 1.43 1.62 1.73 1.78 1.50
0.07 0.05 0.06 0.10 0.22 0.41 0.51 0.79 1.06 1.09 1.03 0.95 0.95 1.04 1.06 1.13 1.17 1.22 1.34 1.76 1.91 1.87 2.10 2.52 2.92 3.11 3.28 3.48 3.53 3.64 3.53 3.35 3.20 3.22 3.22 3.00 2.83 2.61 2.30 2.12 1.92 1.73 1.58 1.48 1.41 1.53 1.47 1.47 1.35
0.05 0.07 0.15 0.23 0.42 0.79 0.63 0.68 1.09 1.09 0.92 0.82 0.73 0.78 0.88 0.83 0.85 0.94 1.11 1.57 1.94 2.02 2.18 2.36 2.65 3.04 3.30 3.38 3.41 3.39 3.30 3.19 2.99 2.86 2.62 2.36 2.28 2.19 2.01 1.87 1.73 1.58 1.54 1.52 1.42 1.40 1.36 1.36 1.37
0.06 0.16 0.53 0.86 1.13 1.17 0.63 0.65 0.97 0.82 0.79 0.70 0.75 0.78 0.68 0.61 0.65 0.69 0.76 0.91 1.07 1.27 1.45 1.62 1.86 2.21 2.52 2.71 2.75 2.64 2.68 2.65 2.41 2.20 2.04 1.78 1.58 1.43 1.37 1.41 1.40 1.34 1.30 1.24 1.25 1.22 1.20 1.25 1.30
0.07 0.11 0.33 0.56 0.71 0.85 0.77 1.08 1.04 0.70 0.61 0.61 0.65 0.60 0.47 0.43 0.43 0.42 0.46 0.50 0.67 0.88 1.14 1.33 1.46 1.59 1.85 2.01 2.05 2.04 2.05 1.99 1.83 1.85 1.66 1.46 1.27 1.14 1.17 1.22 1.21 1.17 1.17 1.13 1.19 1.09 1.03 1.06 1.09
0.06 0.06 0.10 0.17 0.28 0.57 0.88 1.23 1.11 0.74 0.64 0.60 0.48 0.39 0.33 0.27 0.26 0.26 0.29 0.33 0.43 0.64 0.86 1.00 1.17 1.34 1.55 1.75 1.71 1.64 1.53 1.51 1.51 1.49 1.40 1.31 1.28 1.19 1.24 1.20 1.22 1.20 1.20 1.25 1.24 1.12 1.05 1.12 1.10
0.07 0.08 0.09 0.14 0.29 0.51 0.79 1.14 1.24 0.92 0.81 0.64 0.53 0.50 0.33 0.23 0.19 0.20 0.23 0.31 0.34 0.42 0.63 0.83 1.01 1.22 1.33 1.45 1.45 1.35 1.34 1.28 1.27 1.25 1.22 1.20 1.24 1.32 1.36 1.30 1.28 1.26 1.21 1.20 1.17 1.04 1.02 1.13 1.19
0.10 0.10 0.10 0.11 0.15 0.35 0.68 0.92 0.86 0.81 0.70 0.58 0.55 0.48 0.36 0.27 0.19 0.18 0.24 0.31 0.39 0.51 0.68 0.86 0.99 1.11 1.20 1.19 1.20 1.21 1.15 1.16 1.19 1.11 1.08 1.11 1.21 1.28 1.31 1.30 1.28 1.22 1.17 1.17 1.17 1.08 1.14 1.22 1.25
0.11 0.11 0.12 0.16 0.15 0.17 0.35 0.64 0.53 0.49 0.52 0.52 0.47 0.44 0.39 0.33 0.30 0.30 0.33 0.39 0.47 0.56 0.68 0.83 0.99 1.10 1.18 1.24 1.34 1.40 1.41 1.41 1.36 1.21 1.14 1.19 1.26 1.34 1.39 1.39 1.36 1.25 1.25 1.35 1.36 1.28 1.33 1.37 1.34

GEFSSGP_prec_meanprecacc_180.txt.gz
Total_Precipitation_Accumulation
0.02 0.06 0.22 0.40 0.68 1.11 1.06 0.59 0.38 0.35 0.36 0.38 0.48 0.48 0.42 0.41 0.57 0.94 0.32 0.07 0.04 0.02 0.03 0.08 0.10 0.09 0.09 0.11 0.15 0.17 0.16 0.17 0.17 0.16 0.14 0.16 0.18 0.16 0.15 0.19 0.23 0.24 0.25 0.26 0.25 0.25 0.25 0.26 0.29
0.02 0.07 0.20 0.44 0.95 1.44 1.11 0.53 0.35 0.38 0.39 0.39 0.43 0.51 0.56 0.38 0.25 0.20 0.13 0.07 0.05 0.02 0.02 0.04 0.09 0.09 0.09 0.10 0.13 0.16 0.17 0.16 0.16 0.15 0.16 0.17 0.20 0.24 0.23 0.22 0.24 0.27 0.27 0.25 0.24 0.23 0.22 0.23 0.28
0.03 0.08 0.19 0.51 0.82 1.03 0.80 0.37 0.32 0.31 0.41 0.46 0.47 0.48 0.52 0.34 0.21 0.13 0.12 0.09 0.06 0.04 0.04 0.09 0.11 0.09 0.09 0.10 0.13 0.16 0.16 0.15 0.15 0.15 0.16 0.18 0.21 0.26 0.28 0.26 0.26 0.29 0.30 0.26 0.23 0.20 0.20 0.22 0.27
0.03 0.08 0.22 0.45 0.45 0.43 0.41 0.29 0.27 0.26 0.35 0.43 0.54 0.54 0.43 0.27 0.24 0.20 0.13 0.12 0.06 0.05 0.06 0.09 0.12 0.10 0.09 0.09 0.11 0.14 0.15 0.15 0.17 0.18 0.19 0.21 0.22 0.25 0.25 0.23 0.25 0.31 0.30 0.28 0.23 0.18 0.21 0.26 0.28
0.03 0.09 0.30 0.37 0.30 0.33 0.36 0.29 0.27 0.23 0.33 0.45 0.49 0.57 0.55 0.36 0.26 0.19 0.14 0.15 0.10 0.07 0.06 0.08 0.11 0.11 0.11 0.10 0.12 0.14 0.14 0.15 0.17 0.19 0.20 0.23 0.25 0.27 0.26 0.23 0.24 0.28 0.30 0.28 0.23 0.21 0.24 0.27 0.31
0.03 0.13 0.28 0.25 0.20 0.20 0.24 0.21 0.24 0.26 0.35 0.57 0.50 0.57 0.72 0.54 0.37 0.28 0.18 0.18 0.15 0.11 0.07 0.09 0.14 0.16 0.17 0.15 0.16 0.16 0.15 0.15 0.17 0.18 0.19 0.22 0.25 0.25 0.26 0.26 0.26 0.28 0.32 0.28 0.22 0.25 0.30 0.32 0.37
0.02 0.09 0.18 0.17 0.14 0.15 0.17 0.20 0.25 0.24 0.40 0.69 0.55 0.69 0.96 0.88 0.52 0.41 0.38 0.30 0.26 0.23 0.20 0.15 0.16 0.19 0.22 0.23 0.21 0.22 0.19 0.18 0.19 0.20 0.20 0.24 0.24 0.24 0.25 0.32 0.33 0.33 0.34 0.32 0.25 0.23 0.23 0.27 0.33
0.01 0.03 0.07 0.11 0.12 0.11 0.11 0.15 0.19 0.33 0.43 0.57 0.48 0.71 1.19 1.05 0.65 0.59 0.66 0.59 0.63 0.57 0.43 0.27 0.24 0.25 0.22 0.21 0.25 0.27 0.22 0.21 0.21 0.20 0.22 0.24 0.26 0.27 0.31 0.34 0.39 0.42 0.43 0.40 0.33 0.27 0.26 0.31 0.38
0.02 0.02 0.05 0.07 0.08 0.08 0.08 0.11 0.16 0.29 0.43 0.59 0.64 0.70 0.92 0.81 0.78 0.84 0.93 0.98 0.98 1.06 0.88 0.52 0.38 0.35 0.32 0.27 0.27 0.34 0.32 0.29 0.30 0.33 0.33 0.39 0.50 0.52 0.61 0.60 0.63 0.63 0.60 0.56 0.53 0.51 0.48 0.45 0.41
0.01 0.01 0.03 0.04 0.04 0.06 0.06 0.12 0.20 0.33 0.58 0.86 0.89 0.89 1.06 0.99 0.81 0.85 0.89 1.03 1.13 1.24 1.11 0.81 0.69 0.51 0.42 0.38 0.46 0.59 0.55 0.57 0.54 0.64 0.64 0.82 1.04 0.98 0.78 0.88 1.08 1.09 1.09 1.00 1.00 1.00 0.82 0.64 0.61
0.00 0.01 0.01 0.02 0.02 0.04 0.06 0.11 0.19 0.36 0.72 1.18 1.44 1.47 1.33 1.19 1.10 1.05 1.00 1.16 1.36 1.38 1.23 0.98 0.93 0.83 0.66 0.71 0.64 0.72 0.84 0.95 0.83 0.84 0.91 1.22 1.17 0.94 0.91 1.01 1.24 1.46 1.42 1.33 1.50 1.58 1.26 1.20 1.44
0.00 0.00 0.00 0.01 0.02 0.03 0.07 0.10 0.19 0.37 0.71 1.00 1.24 1.53 1.65 1.49 1.51 1.46 1.42 1.65 1.82 1.70 1.52 1.30 1.15 1.01 0.94 0.90 0.83 0.82 0.81 0.97 0.97 1.10 1.13 1.30 1.49 1.41 1.36 1.44 1.50 1.63 1.75 2.03 2.01 2.07 1.89 1.79 1.73
0.00 0.00 0.01 0.01 0.02 0.03 0.06 0.15 0.26 0.40 0.54 0.76 0.93 1.09 1.36 1.70 2.01 2.09 2.16 2.55 2.39 2.20 2.06 1.85 1.52 1.44 1.33 1.35 1.31 1.12 1.12 1.20 1.30 1.45 1.44 1.42 1.63 1.65 1.72 1.74 1.80 1.70 1.80 2.01 2.25 2.19 2.25 2.32 2.12
0.00 0.00 0.01 0.02 0.02 0.03 0.08 0.21 0.26 0.43 0.52 0.67 0.89 1.09 1.62 2.20 2.36 2.61 2.96 3.27 3.11 2.87 2.86 2.64 2.29 2.20 2.05 1.83 1.67 1.60 1.48 1.56 1.59 1.67 1.65 1.67 1.89 2.04 1.99 1.83 1.85 1.79 1.83 1.92 2.11 2.22 2.53 2.50 2.41
0.00 0.02 0.03 0.04 0.03 0.05 0.09 0.27 0.35 0.53 0.62 0.75 1.11 1.30 1.75 2.09 2.35 2.48 2.93 3.28 3.23 3.16 3.30 3.27 3.11 3.06 2.88 2.58 2.22 1.99 1.94 1.84 1.94 2.03 1.97 2.01 2.09 2.22 2.15 2.01 1.85 1.90 1.95 2.06 2.10 2.23 2.50 2.49 2.37
0.02 0.05 0.08 0.08 0.08 0.10 0.17 0.53 0.50 0.61 0.82 1.08 1.32 1.47 1.71 1.87 2.23 2.37 2.74 3.21 3.43 3.44 3.62 3.81 3.76 3.71 3.45 3.15 2.81 2.51 2.34 2.26 2.24 2.21 2.17 2.10 2.24 2.27 2.24 2.05 1.84 2.01 2.01 2.08 2.26 2.36 2.50 2.65 2.65
0.04 0.06 0.13 0.18 0.16 0.13 0.28 0.71 0.73 0.83 0.98 1.11 1.23 1.47 1.63 1.63 1.99 2.42 2.72 3.27 3.66 3.80 4.16 4.50 4.54 4.41 4.03 3.59 3.31 3.17 2.93 2.68 2.49 2.45 2.29 2.22 2.28 2.20 2.24 2.02 1.93 2.08 2.21 2.20 2.05 2.39 2.64 2.67 2.70
0.04 0.06 0.10 0.16 0.17 0.17 0.34 0.55 0.70 0.88 1.04 1.16 1.19 1.30 1.35 1.49 1.96 2.49 2.82 3.14 3.77 4.30 4.87 4.87 4.76 4.99 4.76 4.38 4.07 3.76 3.36 3.03 2.74 2.58 2.39 2.17 2.05 2.04 2.26 1.95 1.92 2.13 2.27 2.23 2.28 2.54 2.67 2.55 2.64
0.05 0.09 0.17 0.19 0.17 0.31 0.49 0.65 0.79 0.91 0.97 1.09 1.20 1.19 1.24 1.54 1.97 2.39 2.77 3.13 3.52 4.10 4.63 5.13 5.15 5.01 4.78 4.41 3.92 3.51 3.13 2.92 2.67 2.42 2.22 2.14 2.12 2.20 2.47 2.16 2.21 2.20 2.15 2.14 2.32 2.48 2.39 2.24 2.63
0.08 0.13 0.21 0.26 0.20 0.30 0.49 0.74 0.92 0.93 0.91 0.99 1.15 1.33 1.36 1.61 1.91 2.31 2.76 3.00 3.15 3.47 3.89 4.28 4.49 4.13 3.70 3.47 3.36 3.19 3.11 2.74 2.55 2.49 2.46 2.30 2.31 2.30 2.28 2.31 2.19 2.20 2.20 2.03 2.09 2.30 2.19 1.87 2.24
0.10 0.11 0.12 0.18 0.20 0.32 0.53 0.89 1.03 0.87 0.82 0.91 1.04 1.32 1.52 1.56 1.78 2.07 2.52 2.71 2.77 2.89 3.05 3.19 3.31 3.26 3.21 3.26 3.33 3.35 3.37 3.04 2.89 2.78 2.72 2.47 2.41 2.35 2.35 2.16 2.01 2.02 1.95 1.84 1.82 1.99 2.08 1.88 1.85
0.13 0.08 0.06 0.09 0.22 0.49 0.61 1.07 1.19 0.97 0.92 0.98 1.03 1.14 1.24 1.37 1.43 1.56 1.85 2.22 2.21 2.25 2.50 2.89 3.00 3.03 3.16 3.40 3.40 3.35 3.24 3.11 3.10 3.19 3.17 3.07 2.85 2.60 2.37 2.14 1.92 1.79 1.68 1.68 1.50 1.69 1.82 1.90 1.61
0.07 0.05 0.06 0.11 0.22 0.42 0.51 0.79 1.06 1.09 1.03 0.95 0.95 1.04 1.06 1.13 1.17 1.22 1.35 1.80 1.95 1.89 2.13 2.56 2.99 3.19 3.35 3.56 3.62 3.75 3.64 3.45 3.29 3.30 3.30 3.09 2.90 2.66 2.34 2.17 1.99 1.82 1.67 1.56 1.48 1.60 1.54 1.56 1.45
0.05 0.07 0.15 0.23 0.43 0.79 0.63 0.68 1.09 1.09 0.92 0.82 0.73 0.78 0.88 0.83 0.86 0.95 1.13 1.61 1.96 2.04 2.20 2.39 2.71 3.10 3.35 3.46 3.48 3.46 3.40 3.29 3.08 2.95 2.71 2.45 2.37 2.26 2.07 1.92 1.79 1.65 1.61 1.58 1.49 1.48 1.44 1.44 1.46
0.06 0.16 0.53 0.86 1.13 1.18 0.63 0.65 0.97 0.82 0.79 0.70 0.75 0.78 0.68 0.61 0.66 0.70 0.77 0.94 1.09 1.28 1.47 1.64 1.90 2.27 2.57 2.77 2.82 2.71 2.76 2.72 2.49 2.29 2.12 1.87 1.67 1.52 1.46 1.47 1.46 1.40 1.36 1.30 1.32 1.30 1.28 1.34 1.40
0.07 0.11 0.33 0.56 0.71 0.85 0.77 1.08 1.04 0.70 0.61 0.61 0.65 0.61 0.48 0.44 0.43 0.42 0.47 0.52 0.70 0.90 1.16 1.35 1.48 1.61 1.88 2.05 2.09 2.09 2.10 2.04 1.88 1.90 1.72 1.53 1.38 1.25 1.26 1.29 1.27 1.23 1.24 1.19 1.26 1.16 1.10 1.13 1.17
0.06 0.06 0.10 0.17 0.28 0.57 0.88 1.23 1.11 0.74 0.64 0.60 0.48 0.39 0.33 0.27 0.26 0.27 0.30 0.36 0.47 0.67 0.87 1.03 1.19 1.36 1.57 1.78 1.76 1.69 1.59 1.56 1.57 1.55 1.44 1.36 1.35 1.26 1.30 1.25 1.27 1.26 1.28 1.33 1.34 1.20 1.14 1.22 1.19
0.07 0.08 0.09 0.14 0.30 0.51 0.79 1.14 1.24 0.93 0.82 0.64 0.53 0.50 0.33 0.23 0.19 0.21 0.24 0.32 0.36 0.44 0.65 0.87 1.03 1.23 1.35 1.49 1.48 1.39 1.39 1.33 1.33 1.30 1.27 1.25 1.30 1.37 1.41 1.34 1.34 1.34 1.32 1.32 1.29 1.13 1.10 1.22 1.27
0.10 0.10 0.10 0.11 0.15 0.35 0.68 0.92 0.86 0.81 0.70 0.58 0.55 0.48 0.36 0.27 0.19 0.18 0.24 0.31 0.40 0.52 0.70 0.90 1.03 1.14 1.23 1.22 1.24 1.25 1.21 1.22 1.23 1.16 1.14 1.17 1.27 1.34 1.36 1.35 1.33 1.30 1.27 1.27 1.28 1.16 1.21 1.29 1.33
0.11 0.11 0.12 0.16 0.15 0.17 0.35 0.64 0.53 0.49 0.52 0.52 0.47 0.45 0.39 0.33 0.30 0.30 0.33 0.39 0.47 0.57 0.69 0.86 1.02 1.12 1.20 1.27 1.37 1.46 1.49 1.48 1.41 1.26 1.18 1.23 1.31 1.39 1.42 1.43 1.41 1.30 1.31 1.42 1.43 1.36 1.42 1.45 1.41

GEFSSGP_prec_meanprecacc_186.txt.gz
Total_Precipitation_Accumulation
0.02 0.06 0.22 0.40 0.71 1.14 1.07 0.60 0.40 0.36 0.37 0.38 0.49 0.49 0.44 0.44 0.61 0.98 0.33 0.07 0.04 0.02 0.03 0.09 0.11 0.11 0.12 0.13 0.17 0.21 0.21 0.20 0.19 0.18 0.17 0.19 0.22 0.20 0.19 0.23 0.27 0.29 0.30 0.29 0.29 0.29 0.29 0.29 0.33
0.02 0.07 0.20 0.46 1.00 1.46 1.12 0.53 0.36 0.39 0.40 0.39 0.43 0.52 0.57 0.39 0.25 0.21 0.13 0.07 0.05 0.02 0.03 0.05 0.10 0.11 0.10 0.12 0.15 0.19 0.22 0.20 0.19 0.19 0.19 0.21 0.24 0.29 0.28 0.28 0.31 0.32 0.31 0.28 0.27 0.26 0.25 0.25 0.31
0.03 0.08 0.20 0.54 0.84 1.03 0.80 0.37 0.32 0.31 0.42 0.46 0.47 0.48 0.52 0.34 0.21 0.13 0.12 0.09 0.06 0.04 0.05 0.09 0.11 0.10 0.09 0.11 0.15 0.18 0.19 0.18 0.18 0.17 0.19 0.22 0.26 0.30 0.33 0.32 0.32 0.33 0.33 0.29 0.26 0.23 0.22 0.23 0.29
0.03 0.08 0.23 0.47 0.46 0.43 0.41 0.29 0.27 0.26 0.35 0.43 0.54 0.55 0.43 0.27 0.24 0.20 0.13 0.12 0.06 0.06 0.06 0.09 0.12 0.10 0.09 0.10 0.12 0.17 0.18 0.17 0.18 0.19 0.21 0.24 0.26 0.28 0.29 0.28 0.30 0.33 0.32 0.30 0.27 0.21 0.22 0.27 0.30
0.03 0.10 0.32 0.42 0.31 0.33 0.36 0.29 0.27 0.24 0.33 0.47 0.49 0.58 0.56 0.36 0.26 0.19 0.14 0.16 0.10 0.07 0.07 0.08 0.11 0.11 0.11 0.11 0.13 0.15 0.16 0.16 0.19 0.21 0.22 0.25 0.28 0.29 0.28 0.27 0.27 0.31 0.33 0.31 0.26 0.23 0.26 0.29 0.33
0.04 0.14 0.30 0.29 0.21 0.20 0.24 0.21 0.24 0.27 0.36 0.57 0.50 0.57 0.73 0.54 0.37 0.28 0.18 0.18 0.16 0.11 0.07 0.09 0.14 0.17 0.18 0.16 0.17 0.18 0.17 0.17 0.20 0.20 0.20 0.24 0.27 0.27 0.28 0.28 0.28 0.31 0.34 0.30 0.24 0.27 0.31 0.33 0.38
0.03 0.11 0.19 0.20 0.15 0.15 0.17 0.20 0.25 0.25 0.40 0.69 0.55 0.69 0.97 0.89 0.52 0.41 0.38 0.30 0.26 0.23 0.20 0.15 0.16 0.19 0.24 0.25 0.23 0.23 0.22 0.21 0.22 0.22 0.22 0.25 0.26 0.26 0.27 0.34 0.35 0.35 0.37 0.34 0.27 0.26 0.25 0.28 0.34
0.02 0.04 0.08 0.13 0.13 0.11 0.11 0.15 0.19 0.33 0.43 0.57 0.48 0.71 1.19 1.05 0.65 0.59 0.66 0.59 0.63 0.57 0.43 0.27 0.25 0.26 0.22 0.22 0.27 0.29 0.25 0.24 0.24 0.23 0.24 0.26 0.28 0.29 0.34 0.36 0.41 0.45 0.45 0.41 0.35 0.29 0.27 0.32 0.38
0.03 0.05 0.08 0.09 0.09 0.09 0.08 0.11 0.16 0.29 0.44 0.59 0.64 0.70 0.92 0.81 0.78 0.84 0.93 0.98 0.99 1.06 0.88 0.53 0.38 0.35 0.33 0.27 0.28 0.37 0.35 0.31 0.33 0.37 0.36 0.45 0.58 0.58 0.67 0.63 0.65 0.65 0.61 0.57 0.54 0.52 0.48 0.46 0.42
0.02 0.06 0.05 0.04 0.04 0.06 0.07 0.12 0.20 0.33 0.59 0.86 0.89 0.89 1.06 0.99 0.81 0.85 0.89 1.03 1.13 1.24 1.12 0.82 0.69 0.51 0.43 0.39 0.49 0.66 0.62 0.62 0.64 0.73 0.71 0.95 1.17 1.10 0.86 0.92 1.10 1.11 1.10 1.01 1.01 1.01 0.84 0.67 0.63
0.01 0.02 0.02 0.02 0.02 0.05 0.07 0.11 0.19 0.38 0.74 1.18 1.44 1.47 1.33 1.19 1.10 1.05 1.00 1.16 1.36 1.38 1.23 1.00 0.95 0.84 0.67 0.74 0.68 0.79 0.93 1.05 0.94 0.92 0.99 1.31 1.24 1.01 0.98 1.07 1.29 1.50 1.45 1.36 1.52 1.60 1.29 1.22 1.46
0.00 0.00 0.00 0.01 0.02 0.03 0.07 0.10 0.19 0.38 0.72 1.00 1.24 1.53 1.65 1.49 1.51 1.46 1.42 1.65 1.82 1.70 1.52 1.31 1.15 1.02 0.96 0.93 0.87 0.88 0.87 1.02 1.03 1.15 1.16 1.34 1.55 1.47 1.45 1.55 1.59 1.72 1.84 2.12 2.06 2.10 1.91 1.81 1.73
0.00 0.00 0.01 0.01 0.02 0.03 0.06 0.15 0.26 0.40 0.54 0.76 0.93 1.09 1.36 1.70 2.01 2.09 2.16 2.56 2.40 2.21 2.06 1.86 1.54 1.46 1.36 1.38 1.36 1.14 1.15 1.24 1.34 1.48 1.46 1.44 1.67 1.71 1.79 1.83 1.87 1.77 1.87 2.06 2.28 2.20 2.27 2.34 2.14
0.00 0.00 0.01 0.02 0.02 0.03 0.08 0.21 0.26 0.43 0.52 0.67 0.89 1.09 1.62 2.20 2.36 2.62 2.97 3.28 3.12 2.88 2.88 2.66 2.31 2.22 2.08 1.86 1.71 1.63 1.50 1.61 1.65 1.70 1.66 1.68 1.94 2.10 2.06 1.91 1.91 1.84 1.88 1.96 2.13 2.24 2.55 2.52 2.43
0.00 0.02 0.03 0.04 0.03 0.05 0.10 0.27 0.35 0.53 0.62 0.75 1.11 1.30 1.75 2.09 2.35 2.49 2.93 3.29 3.25 3.17 3.32 3.30 3.13 3.09 2.91 2.62 2.26 2.02 1.96 1.86 1.97 2.05 1.99 2.02 2.12 2.27 2.21 2.09 1.92 1.96 1.99 2.10 2.13 2.25 2.52 2.51 2.39
0.02 0.05 0.10 0.09 0.08 0.10 0.18 0.54 0.51 0.61 0.82 1.08 1.32 1.47 1.71 1.87 2.24 2.38 2.74 3.22 3.45 3.46 3.64 3.84 3.78 3.75 3.50 3.19 2.85 2.54 2.35 2.27 2.25 2.22 2.19 2.12 2.26 2.31 2.31 2.12 1.91 2.07 2.03 2.11 2.31 2.40 2.54 2.69 2.69
0.04 0.08 0.16 0.19 0.16 0.13 0.29 0.72 0.75 0.83 0.98 1.11 1.23 1.47 1.63 1.64 1.99 2.42 2.73 3.28 3.67 3.80 4.17 4.52 4.56 4.45 4.07 3.61 3.34 3.20 2.96 2.71 2.50 2.47 2.33 2.26 2.31 2.24 2.29 2.08 1.99 2.12 2.25 2.24 2.09 2.46 2.70 2.74 2.77
0.04 0.06 0.11 0.17 0.17 0.18 0.35 0.56 0.70 0.89 1.04 1.16 1.19 1.30 1.35 1.49 1.96 2.50 2.83 3.16 3.78 4.30 4.88 4.88 4.79 5.02 4.79 4.39 4.10 3.80 3.40 3.07 2.76 2.60 2.42 2.22 2.11 2.09 2.31 1.99 1.98 2.18 2.33 2.30 2.34 2.64 2.77 2.64 2.74
0.05 0.09 0.17 0.19 0.17 0.31 0.49 0.66 0.79 0.91 0.97 1.09 1.21 1.19 1.24 1.54 1.97 2.39 2.77 3.15 3.54 4.11 4.65 5.15 5.19 5.06 4.83 4.46 3.97 3.58 3.20 2.99 2.71 2.44 2.24 2.17 2.16 2.26 2.54 2.22 2.30 2.27 2.23 2.22 2.40 2.59 2.51 2.35 2.73
0.08 0.13 0.21 0.26 0.20 0.30 0.49 0.74 0.92 0.93 0.91 0.99 1.15 1.33 1.36 1.61 1.91 2.31 2.76 3.02 3.18 3.50 3.93 4.31 4.53 4.18 3.74 3.52 3.42 3.25 3.21 2.84 2.65 2.55 2.51 2.33 2.35 2.35 2.34 2.38 2.26 2.28 2.30 2.12 2.18 2.42 2.31 1.98 2.34
0.10 0.11 0.12 0.18 0.20 0.32 0.53 0.90 1.03 0.87 0.82 0.91 1.04 1.32 1.52 1.56 1.78 2.07 2.52 2.72 2.79 2.93 3.08 3.23 3.35 3.30 3.26 3.32 3.40 3.43 3.48 3.15 2.99 2.85 2.78 2.51 2.44 2.39 2.39 2.22 2.09 2.13 2.05 1.96 1.93 2.11 2.21 2.01 1.97
0.13 0.08 0.06 0.09 0.22 0.49 0.61 1.09 1.21 0.97 0.92 0.98 1.03 1.14 1.24 1.38 1.43 1.56 1.85 2.23 2.22 2.28 2.53 2.93 3.05 3.09 3.23 3.47 3.48 3.45 3.32 3.19 3.17 3.25 3.22 3.12 2.89 2.64 2.42 2.20 2.01 1.87 1.77 1.80 1.59 1.79 1.95 2.01 1.70
0.07 0.05 0.06 0.11 0.22 0.42 0.51 0.80 1.08 1.10 1.04 0.95 0.95 1.04 1.07 1.13 1.17 1.23 1.35 1.80 1.97 1.91 2.15 2.58 3.03 3.24 3.41 3.62 3.68 3.83 3.71 3.51 3.35 3.36 3.38 3.17 2.97 2.71 2.39 2.22 2.07 1.89 1.74 1.64 1.55 1.70 1.64 1.65 1.53
0.05 0.07 0.15 0.23 0.43 0.79 0.63 0.68 1.10 1.10 0.94 0.84 0.75 0.79 0.88 0.83 0.86 0.95 1.13 1.61 1.98 2.06 2.22 2.41 2.73 3.14 3.40 3.50 3.52 3.52 3.48 3.39 3.18 3.04 2.81 2.53 2.43 2.31 2.11 1.98 1.87 1.72 1.69 1.66 1.57 1.56 1.52 1.52 1.57
0.06 0.16 0.54 0.86 1.13 1.18 0.63 0.65 0.98 0.85 0.80 0.71 0.77 0.78 0.68 0.61 0.66 0.70 0.78 0.95 1.11 1.30 1.49 1.67 1.93 2.30 2.61 2.80 2.87 2.78 2.87 2.83 2.58 2.37 2.22 1.96 1.76 1.60 1.55 1.59 1.58 1.50 1.47 1.41 1.44 1.41 1.38 1.44 1.51
0.07 0.11 0.34 0.56 0.72 0.85 0.77 1.08 1.05 0.72 0.63 0.62 0.66 0.61 0.48 0.44 0.43 0.43 0.47 0.54 0.73 0.93 1.18 1.36 1.51 1.65 1.93 2.10 2.15 2.16 2.19 2.13 1.96 2.01 1.82 1.64 1.48 1.34 1.38 1.44 1.42 1.37 1.36 1.30 1.39 1.28 1.22 1.25 1.28
0.06 0.06 0.10 0.17 0.28 0.57 0.89 1.23 1.12 0.74 0.64 0.60 0.50 0.42 0.34 0.27 0.26 0.27 0.30 0.38 0.50 0.70 0.91 1.06 1.23 1.40 1.63 1.85 1.83 1.78 1.67 1.63 1.67 1.67 1.55 1.46 1.45 1.36 1.39 1.34 1.36 1.36 1.41 1.44 1.46 1.34 1.27 1.37 1.32
0.07 0.08 0.09 0.14 0.30 0.51 0.79 1.14 1.24 0.93 0.83 0.66 0.58 0.57 0.36 0.23 0.19 0.21 0.24 0.34 0.39 0.47 0.68 0.91 1.08 1.28 1.40 1.55 1.56 1.47 1.46 1.40 1.42 1.40 1.36 1.33 1.39 1.46 1.49 1.42 1.43 1.44 1.42 1.44 1.43 1.26 1.25 1.39 1.44
0.10 0.10 0.10 0.11 0.15 0.35 0.69 0.94 0.88 0.82 0.70 0.59 0.58 0.55 0.40 0.28 0.19 0.19 0.25 0.32 0.42 0.54 0.71 0.94 1.09 1.19 1.28 1.28 1.30 1.33 1.28 1.28 1.31 1.24 1.20 1.24 1.36 1.43 1.44 1.42 1.42 1.39 1.36 1.38 1.39 1.26 1.35 1.44 1.46
0.11 0.11 0.12 0.16 0.15 0.17 0.38 0.68 0.60 0.54 0.53 0.53 0.48 0.48 0.43 0.34 0.31 0.31 0.36 0.41 0.48 0.59 0.71 0.89 1.06 1.15 1.24 1.32 1.43 1.52 1.55 1.55 1.47 1.32 1.24 1.30 1.38 1.45 1.48 1.49 1.48 1.36 1.37 1.50 1.50 1.43 1.51 1.55 1.52